Observation data for Lomax on 10/14/2019      Previous  Date       Current Mesonet Observations  Soil Data  Daily Summary Page  Observations in Plain Language
KLO1 140500Z 19007KT 20/06 A30 RMK A01 T02030059  RH  039%=      5-min Rain = 0
KLO1 140501Z 20006KT 20/06 A30 RMK A01 T02030059  RH  039%=      5-min Rain = 0
KLO1 140502Z 20006KT 20/06 A30 RMK A01 T02040059  RH  039%=      5-min Rain = 0
KLO1 140503Z 20006KT 20/06 A30 RMK A01 T02030059  RH  039%=      5-min Rain = 0
KLO1 140504Z 20007KT 20/06 A30 RMK A01 T02030059  RH  039%=      5-min Rain = 0
KLO1 140505Z 20007KT 20/06 A30 RMK A01 T02040059  RH  039%=      5-min Rain = 0
KLO1 140506Z 20007KT 20/06 A30 RMK A01 T02040059  RH  039%=      5-min Rain = 0
KLO1 140507Z 20006KT 20/06 A30 RMK A01 T02040059  RH  039%=      5-min Rain = 0
KLO1 140508Z 20007KT 21/06 A30 RMK A01 T02050059  RH  039%=      5-min Rain = 0
KLO1 140509Z 20007KT 21/06 A30 RMK A01 T02050059  RH  039%=      5-min Rain = 0
KLO1 140510Z 20006KT 21/06 A30 RMK A01 T02050059  RH  039%=      5-min Rain = 0
KLO1 140511Z 19006KT 21/06 A30 RMK A01 T02050059  RH  039%=      5-min Rain = 0
KLO1 140512Z 19006KT 21/06 A30 RMK A01 T02050059  RH  039%=      5-min Rain = 0
KLO1 140513Z 19006KT 21/06 A30 RMK A01 T02050059  RH  039%=      5-min Rain = 0
KLO1 140514Z 19007KT 21/06 A30 RMK A01 T02050059  RH  039%=      5-min Rain = 0
KLO1 140515Z 19007KT 21/06 A30 RMK A01 T02050059  RH  039%=      5-min Rain = 0
KLO1 140516Z 19006KT 21/06 A30 RMK A01 T02050059  RH  039%=      5-min Rain = 0
KLO1 140517Z 19007KT 21/06 A30 RMK A01 T02050059  RH  039%=      5-min Rain = 0
KLO1 140518Z 19007KT 21/06 A30 RMK A01 T02050060  RH  039%=      5-min Rain = 0
KLO1 140519Z 19007KT 21/06 A30 RMK A01 T02050060  RH  039%=      5-min Rain = 0
KLO1 140520Z 19007KT 21/06 A30 RMK A01 T02050060  RH  039%=      5-min Rain = 0
KLO1 140521Z 18007KT 21/06 A30 RMK A01 T02050060  RH  039%=      5-min Rain = 0
KLO1 140522Z 19008KT 21/06 A30 RMK A01 T02050059  RH  039%=      5-min Rain = 0
KLO1 140523Z 18007KT 21/06 A30 RMK A01 T02050059  RH  039%=      5-min Rain = 0
KLO1 140524Z 18007KT 21/06 A30 RMK A01 T02050060  RH  039%=      5-min Rain = 0
KLO1 140525Z 19007KT 21/06 A2999 RMK A01 T02050060  RH  039%=      5-min Rain = 0
KLO1 140526Z 19007KT 20/06 A2999 RMK A01 T02040059  RH  039%=      5-min Rain = 0
KLO1 140527Z 19007KT 20/06 A2999 RMK A01 T02040060  RH  039%=      5-min Rain = 0
KLO1 140528Z 18007KT 20/06 A2999 RMK A01 T02040060  RH  039%=      5-min Rain = 0
KLO1 140529Z 20006KT 20/06 A2999 RMK A01 T02040060  RH  039%=      5-min Rain = 0
KLO1 140530Z 19008KT 20/06 A2999 RMK A01 T02040060  RH  039%=      5-min Rain = 0
KLO1 140531Z 19007KT 21/06 A2999 RMK A01 T02050060  RH  039%=      5-min Rain = 0
KLO1 140532Z 20007KT 20/06 A2999 RMK A01 T02040060  RH  039%=      5-min Rain = 0
KLO1 140533Z 19006KT 20/06 A2999 RMK A01 T02040060  RH  039%=      5-min Rain = 0
KLO1 140534Z 19006KT 20/06 A2999 RMK A01 T02040060  RH  039%=      5-min Rain = 0
KLO1 140535Z 20006KT 20/06 A2999 RMK A01 T02040060  RH  039%=      5-min Rain = 0
KLO1 140536Z 20006KT 20/06 A2999 RMK A01 T02030060  RH  039%=      5-min Rain = 0
KLO1 140537Z 20006KT 20/06 A2999 RMK A01 T02040060  RH  039%=      5-min Rain = 0
KLO1 140538Z 20006KT 20/06 A2999 RMK A01 T02040060  RH  039%=      5-min Rain = 0
KLO1 140539Z 20006KT 20/06 A2999 RMK A01 T02030060  RH  039%=      5-min Rain = 0
KLO1 140540Z 20006KT 20/06 A2999 RMK A01 T02030060  RH  039%=      5-min Rain = 0
KLO1 140541Z 20007KT 20/06 A2999 RMK A01 T02030060  RH  039%=      5-min Rain = 0
KLO1 140542Z 20006KT 20/06 A2999 RMK A01 T02040060  RH  039%=      5-min Rain = 0
KLO1 140543Z 20007KT 20/06 A2999 RMK A01 T02030060  RH  039%=      5-min Rain = 0
KLO1 140544Z 20006KT 20/06 A2999 RMK A01 T02030060  RH  039%=      5-min Rain = 0
KLO1 140545Z 20006KT 20/06 A2999 RMK A01 T02030060  RH  039%=      5-min Rain = 0
KLO1 140546Z 20006KT 20/06 A2999 RMK A01 T02030060  RH  039%=      5-min Rain = 0
KLO1 140547Z 20006KT 20/06 A2999 RMK A01 T02030060  RH  039%=      5-min Rain = 0
KLO1 140548Z 20006KT 20/06 A2999 RMK A01 T02030060  RH  039%=      5-min Rain = 0
KLO1 140549Z 20006KT 20/06 A2999 RMK A01 T02030060  RH  039%=      5-min Rain = 0
KLO1 140550Z 20007KT 20/06 A2999 RMK A01 T02030060  RH  039%=      5-min Rain = 0
KLO1 140551Z 20007KT 20/06 A2999 RMK A01 T02020060  RH  039%=      5-min Rain = 0
KLO1 140552Z 19007KT 20/06 A2999 RMK A01 T02020060  RH  039%=      5-min Rain = 0
KLO1 140553Z 20006KT 20/06 A2999 RMK A01 T02020060  RH  039%=      5-min Rain = 0
KLO1 140554Z 20006KT 20/06 A2999 RMK A01 T02020060  RH  039%=      5-min Rain = 0
KLO1 140555Z 20008KT 20/06 A2999 RMK A01 T02020060  RH  039%=      5-min Rain = 0
KLO1 140556Z 20007KT 20/06 A2999 RMK A01 T02020060  RH  040%=      5-min Rain = 0
KLO1 140557Z 20007KT 20/06 A2999 RMK A01 T02020060  RH  040%=      5-min Rain = 0
KLO1 140558Z 20006KT 20/06 A2999 RMK A01 T02020060  RH  040%=      5-min Rain = 0
KLO1 140559Z 20007KT 20/06 A2999 RMK A01 T02020060  RH  040%=      5-min Rain = 0
KLO1 140600Z 20007KT 20/06 A2999 RMK A01 T02020060  RH  040%=      5-min Rain = 0
KLO1 140601Z 20007KT 20/06 A2998 RMK A01 T02020060  RH  040%=      5-min Rain = 0
KLO1 140602Z 20007KT 20/06 A2998 RMK A01 T02010060  RH  040%=      5-min Rain = 0
KLO1 140603Z 20008KT 20/06 A2998 RMK A01 T02020060  RH  040%=      5-min Rain = 0
KLO1 140604Z 20008KT 20/06 A2998 RMK A01 T02020060  RH  040%=      5-min Rain = 0
KLO1 140605Z 21008KT 20/06 A2998 RMK A01 T02020060  RH  040%=      5-min Rain = 0
KLO1 140606Z 20007KT 20/06 A2998 RMK A01 T02020060  RH  040%=      5-min Rain = 0
KLO1 140607Z 20008KT 20/06 A2998 RMK A01 T02010060  RH  040%=      5-min Rain = 0
KLO1 140608Z 20008KT 20/06 A2998 RMK A01 T02020060  RH  040%=      5-min Rain = 0
KLO1 140609Z 20008KT 20/06 A2998 RMK A01 T02010060  RH  040%=      5-min Rain = 0
KLO1 140610Z 20007KT 20/06 A2998 RMK A01 T02020060  RH  040%=      5-min Rain = 0
KLO1 140611Z 20008KT 20/06 A2999 RMK A01 T02010060  RH  040%=      5-min Rain = 0
KLO1 140612Z 20008KT 20/06 A2999 RMK A01 T02010060  RH  040%=      5-min Rain = 0
KLO1 140613Z 20007KT 20/06 A2999 RMK A01 T02020061  RH  040%=      5-min Rain = 0
KLO1 140614Z 20008KT 20/06 A2999 RMK A01 T02010060  RH  040%=      5-min Rain = 0
KLO1 140615Z 20007KT 20/06 A2999 RMK A01 T02010060  RH  040%=      5-min Rain = 0
KLO1 140616Z 20007KT 20/06 A2999 RMK A01 T02010060  RH  040%=      5-min Rain = 0
KLO1 140617Z 20007KT 20/06 A2999 RMK A01 T02010060  RH  040%=      5-min Rain = 0
KLO1 140618Z 20007KT 20/06 A2999 RMK A01 T02010061  RH  040%=      5-min Rain = 0
KLO1 140619Z 20007KT 20/06 A2999 RMK A01 T02000060  RH  040%=      5-min Rain = 0
KLO1 140620Z 20007KT 20/06 A2999 RMK A01 T02000061  RH  040%=      5-min Rain = 0
KLO1 140621Z 20006KT 20/06 A2999 RMK A01 T02000061  RH  040%=      5-min Rain = 0
KLO1 140622Z 20006KT 20/06 A2999 RMK A01 T02000061  RH  040%=      5-min Rain = 0
KLO1 140623Z 20007KT 20/06 A2999 RMK A01 T01990060  RH  040%=      5-min Rain = 0
KLO1 140624Z 20006KT 20/06 A2999 RMK A01 T01990061  RH  040%=      5-min Rain = 0
KLO1 140625Z 20007KT 20/06 A2999 RMK A01 T01990061  RH  041%=      5-min Rain = 0
KLO1 140626Z 20007KT 20/06 A2999 RMK A01 T01980061  RH  041%=      5-min Rain = 0
KLO1 140627Z 20007KT 20/06 A2998 RMK A01 T01980061  RH  041%=      5-min Rain = 0
KLO1 140628Z 20007KT 20/06 A2998 RMK A01 T01980061  RH  041%=      5-min Rain = 0
KLO1 140629Z 19007KT 20/06 A2998 RMK A01 T01980061  RH  041%=      5-min Rain = 0
KLO1 140630Z 19006KT 20/06 A2998 RMK A01 T01970060  RH  041%=      5-min Rain = 0
KLO1 140631Z 19006KT 20/06 A2998 RMK A01 T01970061  RH  041%=      5-min Rain = 0
KLO1 140632Z 19007KT 20/06 A2998 RMK A01 T01970061  RH  041%=      5-min Rain = 0
KLO1 140633Z 19006KT 20/06 A2998 RMK A01 T01970061  RH  041%=      5-min Rain = 0
KLO1 140634Z 19006KT 20/06 A2998 RMK A01 T01960061  RH  041%=      5-min Rain = 0
KLO1 140635Z 19006KT 20/06 A2998 RMK A01 T01960061  RH  041%=      5-min Rain = 0
KLO1 140636Z 19006KT 20/06 A2998 RMK A01 T01960061  RH  041%=      5-min Rain = 0
KLO1 140637Z 19006KT 20/06 A2998 RMK A01 T01960061  RH  041%=      5-min Rain = 0
KLO1 140638Z 19005KT 20/06 A2998 RMK A01 T01950061  RH  041%=      5-min Rain = 0
KLO1 140639Z 19006KT 20/06 A2998 RMK A01 T01950061  RH  041%=      5-min Rain = 0
KLO1 140640Z 19005KT 20/06 A2998 RMK A01 T01950061  RH  042%=      5-min Rain = 0
KLO1 140641Z 19005KT 20/06 A2998 RMK A01 T01950061  RH  042%=      5-min Rain = 0
KLO1 140642Z 19005KT 20/06 A2998 RMK A01 T01950061  RH  042%=      5-min Rain = 0
KLO1 140643Z 18006KT 20/06 A2998 RMK A01 T01950061  RH  042%=      5-min Rain = 0
KLO1 140644Z 18005KT 19/06 A2998 RMK A01 T01940061  RH  042%=      5-min Rain = 0
KLO1 140645Z 19005KT 19/06 A2998 RMK A01 T01940061  RH  042%=      5-min Rain = 0
KLO1 140646Z 19005KT 19/06 A2998 RMK A01 T01940061  RH  042%=      5-min Rain = 0
KLO1 140647Z 19005KT 19/06 A2998 RMK A01 T01940061  RH  042%=      5-min Rain = 0
KLO1 140648Z 19005KT 19/06 A2998 RMK A01 T01930061  RH  042%=      5-min Rain = 0
KLO1 140649Z 19005KT 19/06 A2998 RMK A01 T01930061  RH  042%=      5-min Rain = 0
KLO1 140650Z 19005KT 19/06 A2998 RMK A01 T01930061  RH  042%=      5-min Rain = 0
KLO1 140651Z 19005KT 19/06 A2998 RMK A01 T01930061  RH  042%=      5-min Rain = 0
KLO1 140652Z 19004KT 19/06 A2998 RMK A01 T01930062  RH  042%=      5-min Rain = 0
KLO1 140653Z 19004KT 19/06 A2998 RMK A01 T01930062  RH  042%=      5-min Rain = 0
KLO1 140654Z 19005KT 19/06 A2998 RMK A01 T01930062  RH  042%=      5-min Rain = 0
KLO1 140655Z 19005KT 19/06 A2998 RMK A01 T01920061  RH  042%=      5-min Rain = 0
KLO1 140656Z 19005KT 19/06 A2998 RMK A01 T01920062  RH  042%=      5-min Rain = 0
KLO1 140657Z 19004KT 19/06 A2998 RMK A01 T01920062  RH  042%=      5-min Rain = 0
KLO1 140658Z 18005KT 19/06 A2998 RMK A01 T01920062  RH  042%=      5-min Rain = 0
KLO1 140659Z 18004KT 19/06 A2998 RMK A01 T01920062  RH  042%=      5-min Rain = 0
KLO1 140700Z 18005KT 19/06 A2998 RMK A01 T01920062  RH  043%=      5-min Rain = 0
KLO1 140701Z 18004KT 19/06 A2998 RMK A01 T01920062  RH  043%=      5-min Rain = 0
KLO1 140702Z 18004KT 19/06 A2998 RMK A01 T01920062  RH  043%=      5-min Rain = 0
KLO1 140703Z 17004KT 19/06 A2998 RMK A01 T01910062  RH  043%=      5-min Rain = 0
KLO1 140704Z 17004KT 19/06 A2998 RMK A01 T01920062  RH  043%=      5-min Rain = 0
KLO1 140705Z 17004KT 19/06 A2998 RMK A01 T01920062  RH  043%=      5-min Rain = 0
KLO1 140706Z 16004KT 19/06 A2998 RMK A01 T01920062  RH  043%=      5-min Rain = 0
KLO1 140707Z 16004KT 19/06 A2998 RMK A01 T01920062  RH  043%=      5-min Rain = 0
KLO1 140708Z 16004KT 19/06 A2998 RMK A01 T01910062  RH  043%=      5-min Rain = 0
KLO1 140709Z 15004KT 19/06 A2998 RMK A01 T01910062  RH  043%=      5-min Rain = 0
KLO1 140710Z 14004KT 19/06 A2998 RMK A01 T01910062  RH  043%=      5-min Rain = 0
KLO1 140711Z 14004KT 19/06 A2998 RMK A01 T01910062  RH  043%=      5-min Rain = 0
KLO1 140712Z 14004KT 19/06 A2998 RMK A01 T01900062  RH  043%=      5-min Rain = 0
KLO1 140713Z 14004KT 19/06 A2998 RMK A01 T01900063  RH  043%=      5-min Rain = 0
KLO1 140714Z 13004KT 19/06 A2998 RMK A01 T01890062  RH  044%=      5-min Rain = 0
KLO1 140715Z 13004KT 19/06 A2998 RMK A01 T01890063  RH  044%=      5-min Rain = 0
KLO1 140716Z 13004KT 19/06 A2998 RMK A01 T01880063  RH  044%=      5-min Rain = 0
KLO1 140717Z 13004KT 19/06 A2998 RMK A01 T01870063  RH  044%=      5-min Rain = 0
KLO1 140718Z 12004KT 19/06 A2998 RMK A01 T01870063  RH  044%=      5-min Rain = 0
KLO1 140719Z 12004KT 19/06 A2998 RMK A01 T01860063  RH  044%=      5-min Rain = 0
KLO1 140720Z 12004KT 19/06 A2998 RMK A01 T01850063  RH  045%=      5-min Rain = 0
KLO1 140721Z 12004KT 18/06 A2998 RMK A01 T01830063  RH  045%=      5-min Rain = 0
KLO1 140722Z 12004KT 18/06 A2998 RMK A01 T01830063  RH  045%=      5-min Rain = 0
KLO1 140723Z 12004KT 18/06 A2998 RMK A01 T01820063  RH  046%=      5-min Rain = 0
KLO1 140724Z 12004KT 18/06 A2998 RMK A01 T01820063  RH  046%=      5-min Rain = 0
KLO1 140725Z 13003KT 18/06 A2998 RMK A01 T01820063  RH  046%=      5-min Rain = 0
KLO1 140726Z 13003KT 18/06 A2998 RMK A01 T01820063  RH  046%=      5-min Rain = 0
KLO1 140727Z 13004KT 18/06 A2998 RMK A01 T01810063  RH  046%=      5-min Rain = 0
KLO1 140728Z 14003KT 18/06 A2998 RMK A01 T01820063  RH  046%=      5-min Rain = 0
KLO1 140729Z 14003KT 18/06 A2998 RMK A01 T01820063  RH  046%=      5-min Rain = 0
KLO1 140730Z 15003KT 18/06 A2998 RMK A01 T01820063  RH  046%=      5-min Rain = 0
KLO1 140731Z 14003KT 18/06 A2998 RMK A01 T01820063  RH  046%=      5-min Rain = 0
KLO1 140732Z 15004KT 18/06 A2998 RMK A01 T01820063  RH  046%=      5-min Rain = 0
KLO1 140733Z 15004KT 18/06 A2998 RMK A01 T01820063  RH  046%=      5-min Rain = 0
KLO1 140734Z 15004KT 18/06 A2998 RMK A01 T01820063  RH  046%=      5-min Rain = 0
KLO1 140735Z 15004KT 18/06 A2998 RMK A01 T01820064  RH  046%=      5-min Rain = 0
KLO1 140736Z 15005KT 18/06 A2998 RMK A01 T01820064  RH  046%=      5-min Rain = 0
KLO1 140737Z 15005KT 18/06 A2998 RMK A01 T01810063  RH  046%=      5-min Rain = 0
KLO1 140738Z 15005KT 18/06 A2998 RMK A01 T01810064  RH  046%=      5-min Rain = 0
KLO1 140739Z 15005KT 18/06 A2998 RMK A01 T01810064  RH  046%=      5-min Rain = 0
KLO1 140740Z 15005KT 18/06 A2998 RMK A01 T01810064  RH  046%=      5-min Rain = 0
KLO1 140741Z 15005KT 18/06 A2998 RMK A01 T01810063  RH  046%=      5-min Rain = 0
KLO1 140742Z 16005KT 18/06 A2998 RMK A01 T01810064  RH  046%=      5-min Rain = 0
KLO1 140743Z 16004KT 18/06 A2998 RMK A01 T01800063  RH  046%=      5-min Rain = 0
KLO1 140744Z 16004KT 18/06 A2998 RMK A01 T01810064  RH  046%=      5-min Rain = 0
KLO1 140745Z 17004KT 18/06 A2998 RMK A01 T01810064  RH  046%=      5-min Rain = 0
KLO1 140746Z 17004KT 18/06 A2998 RMK A01 T01800063  RH  046%=      5-min Rain = 0
KLO1 140747Z 17004KT 18/06 A2998 RMK A01 T01800063  RH  046%=      5-min Rain = 0
KLO1 140748Z 17005KT 18/06 A2998 RMK A01 T01800063  RH  046%=      5-min Rain = 0
KLO1 140749Z 18004KT 18/06 A2998 RMK A01 T01800063  RH  046%=      5-min Rain = 0
KLO1 140750Z 17005KT 18/06 A2998 RMK A01 T01800064  RH  047%=      5-min Rain = 0
KLO1 140751Z 17004KT 18/06 A2998 RMK A01 T01790063  RH  047%=      5-min Rain = 0
KLO1 140752Z 17004KT 18/06 A2998 RMK A01 T01790064  RH  047%=      5-min Rain = 0
KLO1 140753Z 17004KT 18/06 A2998 RMK A01 T01790064  RH  047%=      5-min Rain = 0
KLO1 140754Z 17004KT 18/06 A2998 RMK A01 T01790064  RH  047%=      5-min Rain = 0
KLO1 140755Z 17005KT 18/06 A2998 RMK A01 T01790064  RH  047%=      5-min Rain = 0
KLO1 140756Z 16005KT 18/06 A2998 RMK A01 T01790064  RH  047%=      5-min Rain = 0
KLO1 140757Z 15004KT 18/06 A2998 RMK A01 T01800064  RH  047%=      5-min Rain = 0
KLO1 140758Z 15005KT 18/06 A2998 RMK A01 T01790064  RH  047%=      5-min Rain = 0
KLO1 140759Z 16005KT 18/06 A2998 RMK A01 T01800064  RH  047%=      5-min Rain = 0
KLO1 140800Z 15005KT 18/06 A2998 RMK A01 T01790064  RH  047%=      5-min Rain = 0
KLO1 140801Z 15005KT 18/06 A2998 RMK A01 T01800064  RH  047%=      5-min Rain = 0
KLO1 140802Z 15004KT 18/06 A2998 RMK A01 T01800063  RH  046%=      5-min Rain = 0
KLO1 140803Z 16004KT 18/06 A2998 RMK A01 T01800064  RH  047%=      5-min Rain = 0
KLO1 140804Z 16004KT 18/06 A2998 RMK A01 T01800064  RH  047%=      5-min Rain = 0
KLO1 140805Z 16004KT 18/06 A2998 RMK A01 T01790064  RH  047%=      5-min Rain = 0
KLO1 140806Z 17004KT 18/06 A2998 RMK A01 T01790064  RH  047%=      5-min Rain = 0
KLO1 140807Z 17004KT 18/06 A2998 RMK A01 T01780064  RH  047%=      5-min Rain = 0
KLO1 140808Z 17004KT 18/06 A2998 RMK A01 T01780064  RH  047%=      5-min Rain = 0
KLO1 140809Z 17004KT 18/06 A2998 RMK A01 T01780064  RH  047%=      5-min Rain = 0
KLO1 140810Z 18004KT 18/06 A2998 RMK A01 T01770064  RH  047%=      5-min Rain = 0
KLO1 140811Z 18004KT 18/06 A2998 RMK A01 T01770064  RH  047%=      5-min Rain = 0
KLO1 140812Z 18003KT 18/06 A2998 RMK A01 T01770064  RH  048%=      5-min Rain = 0
KLO1 140813Z 18003KT 18/06 A2998 RMK A01 T01760064  RH  048%=      5-min Rain = 0
KLO1 140814Z 18003KT 18/06 A2998 RMK A01 T01760064  RH  048%=      5-min Rain = 0
KLO1 140815Z 17003KT 18/06 A2998 RMK A01 T01750064  RH  048%=      5-min Rain = 0
KLO1 140816Z 17003KT 18/06 A2998 RMK A01 T01750064  RH  048%=      5-min Rain = 0
KLO1 140817Z 17002KT 18/07 A2998 RMK A01 T01750065  RH  048%=      5-min Rain = 0
KLO1 140818Z 16002KT 18/06 A2998 RMK A01 T01750064  RH  048%=      5-min Rain = 0
KLO1 140819Z 16002KT 17/06 A2998 RMK A01 T01740064  RH  048%=      5-min Rain = 0
KLO1 140820Z 14002KT 17/06 A2998 RMK A01 T01740064  RH  048%=      5-min Rain = 0
KLO1 140821Z 13002KT 17/06 A2998 RMK A01 T01720064  RH  049%=      5-min Rain = 0
KLO1 140822Z 11002KT 17/06 A2997 RMK A01 T01710064  RH  049%=      5-min Rain = 0
KLO1 140823Z 10002KT 17/06 A2997 RMK A01 T01700064  RH  050%=      5-min Rain = 0
KLO1 140824Z 10003KT 17/06 A2997 RMK A01 T01680064  RH  050%=      5-min Rain = 0
KLO1 140825Z 11003KT 17/06 A2997 RMK A01 T01660064  RH  051%=      5-min Rain = 0
KLO1 140826Z 11003KT 17/06 A2997 RMK A01 T01660063  RH  051%=      5-min Rain = 0
KLO1 140827Z 11003KT 17/06 A2998 RMK A01 T01650063  RH  051%=      5-min Rain = 0
KLO1 140828Z 12003KT 17/06 A2998 RMK A01 T01650064  RH  051%=      5-min Rain = 0
KLO1 140829Z 13003KT 17/06 A2998 RMK A01 T01650063  RH  051%=      5-min Rain = 0
KLO1 140830Z 14003KT 17/06 A2998 RMK A01 T01650063  RH  051%=      5-min Rain = 0
KLO1 140831Z 14003KT 17/06 A2998 RMK A01 T01650064  RH  051%=      5-min Rain = 0
KLO1 140832Z 15003KT 16/06 A2997 RMK A01 T01640064  RH  051%=      5-min Rain = 0
KLO1 140833Z 16004KT 16/06 A2997 RMK A01 T01640064  RH  052%=      5-min Rain = 0
KLO1 140834Z 17005KT 16/06 A2997 RMK A01 T01640064  RH  052%=      5-min Rain = 0
KLO1 140835Z 17005KT 16/06 A2997 RMK A01 T01640064  RH  052%=      5-min Rain = 0
KLO1 140836Z 18006KT 16/06 A2997 RMK A01 T01630064  RH  052%=      5-min Rain = 0
KLO1 140837Z 18006KT 16/06 A2997 RMK A01 T01640064  RH  051%=      5-min Rain = 0
KLO1 140838Z 18006KT 17/06 A2997 RMK A01 T01660064  RH  051%=      5-min Rain = 0
KLO1 140839Z 18007KT 17/07 A2997 RMK A01 T01680065  RH  051%=      5-min Rain = 0
KLO1 140840Z 18007KT 17/07 A2997 RMK A01 T01710066  RH  050%=      5-min Rain = 0
KLO1 140841Z 18007KT 17/07 A2997 RMK A01 T01740065  RH  049%=      5-min Rain = 0
KLO1 140842Z 18007KT 18/07 A2997 RMK A01 T01760065  RH  048%=      5-min Rain = 0
KLO1 140843Z 18007KT 18/07 A2997 RMK A01 T01770065  RH  048%=      5-min Rain = 0
KLO1 140844Z 18007KT 18/07 A2997 RMK A01 T01780065  RH  047%=      5-min Rain = 0
KLO1 140845Z 18006KT 18/06 A2997 RMK A01 T01790064  RH  047%=      5-min Rain = 0
KLO1 140846Z 17006KT 18/07 A2997 RMK A01 T01800065  RH  047%=      5-min Rain = 0
KLO1 140847Z 17006KT 18/06 A2997 RMK A01 T01800064  RH  046%=      5-min Rain = 0
KLO1 140848Z 17006KT 18/06 A2997 RMK A01 T01810064  RH  046%=      5-min Rain = 0
KLO1 140849Z 17006KT 18/06 A2997 RMK A01 T01810064  RH  046%=      5-min Rain = 0
KLO1 140850Z 18006KT 18/06 A2997 RMK A01 T01810064  RH  046%=      5-min Rain = 0
KLO1 140851Z 18005KT 18/06 A2997 RMK A01 T01810064  RH  046%=      5-min Rain = 0
KLO1 140852Z 18006KT 18/06 A2997 RMK A01 T01810064  RH  046%=      5-min Rain = 0
KLO1 140853Z 18006KT 18/06 A2997 RMK A01 T01810064  RH  046%=      5-min Rain = 0
KLO1 140854Z 19006KT 18/06 A2997 RMK A01 T01810064  RH  046%=      5-min Rain = 0
KLO1 140855Z 19006KT 18/06 A2997 RMK A01 T01810064  RH  046%=      5-min Rain = 0
KLO1 140856Z 19006KT 18/06 A2997 RMK A01 T01800064  RH  046%=      5-min Rain = 0
KLO1 140857Z 19006KT 18/06 A2997 RMK A01 T01800064  RH  047%=      5-min Rain = 0
KLO1 140858Z 19006KT 18/06 A2997 RMK A01 T01800064  RH  047%=      5-min Rain = 0
KLO1 140859Z 19006KT 18/07 A2997 RMK A01 T01800065  RH  047%=      5-min Rain = 0
KLO1 140900Z 19006KT 18/06 A2997 RMK A01 T01800064  RH  047%=      5-min Rain = 0
KLO1 140901Z 19006KT 18/06 A2997 RMK A01 T01800064  RH  047%=      5-min Rain = 0
KLO1 140902Z 19006KT 18/06 A2997 RMK A01 T01800064  RH  047%=      5-min Rain = 0
KLO1 140903Z 19006KT 18/06 A2997 RMK A01 T01800064  RH  047%=      5-min Rain = 0
KLO1 140904Z 19006KT 18/07 A2997 RMK A01 T01800065  RH  047%=      5-min Rain = 0
KLO1 140905Z 18005KT 18/07 A2997 RMK A01 T01800065  RH  047%=      5-min Rain = 0
KLO1 140906Z 18006KT 18/07 A2997 RMK A01 T01800065  RH  047%=      5-min Rain = 0
KLO1 140907Z 18006KT 18/07 A2997 RMK A01 T01800065  RH  047%=      5-min Rain = 0
KLO1 140908Z 18005KT 18/07 A2997 RMK A01 T01800065  RH  047%=      5-min Rain = 0
KLO1 140909Z 18005KT 18/07 A2997 RMK A01 T01800065  RH  047%=      5-min Rain = 0
KLO1 140910Z 18005KT 18/07 A2997 RMK A01 T01800065  RH  047%=      5-min Rain = 0
KLO1 140911Z 18005KT 18/07 A2997 RMK A01 T01800065  RH  047%=      5-min Rain = 0
KLO1 140912Z 18005KT 18/07 A2997 RMK A01 T01800066  RH  047%=      5-min Rain = 0
KLO1 140913Z 18004KT 18/07 A2997 RMK A01 T01800065  RH  047%=      5-min Rain = 0
KLO1 140914Z 18004KT 18/07 A2997 RMK A01 T01800065  RH  047%=      5-min Rain = 0
KLO1 140915Z 18004KT 18/07 A2997 RMK A01 T01800065  RH  047%=      5-min Rain = 0
KLO1 140916Z 18004KT 18/07 A2997 RMK A01 T01800065  RH  047%=      5-min Rain = 0
KLO1 140917Z 18004KT 18/07 A2997 RMK A01 T01800065  RH  047%=      5-min Rain = 0
KLO1 140918Z 18005KT 18/07 A2997 RMK A01 T01810066  RH  047%=      5-min Rain = 0
KLO1 140919Z 18004KT 18/07 A2997 RMK A01 T01810066  RH  047%=      5-min Rain = 0
KLO1 140920Z 19004KT 18/07 A2997 RMK A01 T01810066  RH  047%=      5-min Rain = 0
KLO1 140921Z 19003KT 18/07 A2997 RMK A01 T01810066  RH  047%=      5-min Rain = 0
KLO1 140922Z 19003KT 18/07 A2997 RMK A01 T01810066  RH  047%=      5-min Rain = 0
KLO1 140923Z 18003KT 18/07 A2997 RMK A01 T01800066  RH  047%=      5-min Rain = 0
KLO1 140924Z 18003KT 18/07 A2997 RMK A01 T01800066  RH  047%=      5-min Rain = 0
KLO1 140925Z 18003KT 18/07 A2997 RMK A01 T01800066  RH  047%=      5-min Rain = 0
KLO1 140926Z 18003KT 18/07 A2997 RMK A01 T01800066  RH  047%=      5-min Rain = 0
KLO1 140927Z 18004KT 18/07 A2997 RMK A01 T01790066  RH  047%=      5-min Rain = 0
KLO1 140928Z 18004KT 18/07 A2997 RMK A01 T01790066  RH  048%=      5-min Rain = 0
KLO1 140929Z 18003KT 18/07 A2997 RMK A01 T01780066  RH  048%=      5-min Rain = 0
KLO1 140930Z 18003KT 18/07 A2997 RMK A01 T01780066  RH  048%=      5-min Rain = 0
KLO1 140931Z 18003KT 18/07 A2997 RMK A01 T01780067  RH  048%=      5-min Rain = 0
KLO1 140932Z 18003KT 18/07 A2997 RMK A01 T01770067  RH  048%=      5-min Rain = 0
KLO1 140933Z 18003KT 18/07 A2997 RMK A01 T01770067  RH  048%=      5-min Rain = 0
KLO1 140934Z 18003KT 18/07 A2997 RMK A01 T01770067  RH  048%=      5-min Rain = 0
KLO1 140935Z 18003KT 18/07 A2997 RMK A01 T01770067  RH  048%=      5-min Rain = 0
KLO1 140936Z 18003KT 18/07 A2997 RMK A01 T01760067  RH  049%=      5-min Rain = 0
KLO1 140937Z 18003KT 18/07 A2997 RMK A01 T01760067  RH  049%=      5-min Rain = 0
KLO1 140938Z 18003KT 18/07 A2997 RMK A01 T01760067  RH  049%=      5-min Rain = 0
KLO1 140939Z 18003KT 18/07 A2997 RMK A01 T01760067  RH  049%=      5-min Rain = 0
KLO1 140940Z 18003KT 18/07 A2997 RMK A01 T01760067  RH  049%=      5-min Rain = 0
KLO1 140941Z 18003KT 18/07 A2997 RMK A01 T01760067  RH  049%=      5-min Rain = 0
KLO1 140942Z 18003KT 18/07 A2997 RMK A01 T01750067  RH  049%=      5-min Rain = 0
KLO1 140943Z 18003KT 18/07 A2998 RMK A01 T01760067  RH  049%=      5-min Rain = 0
KLO1 140944Z 18003KT 18/07 A2998 RMK A01 T01750067  RH  049%=      5-min Rain = 0
KLO1 140945Z 17003KT 18/07 A2998 RMK A01 T01750067  RH  049%=      5-min Rain = 0
KLO1 140946Z 16003KT 17/07 A2997 RMK A01 T01740067  RH  049%=      5-min Rain = 0
KLO1 140947Z 16004KT 17/07 A2997 RMK A01 T01740067  RH  050%=      5-min Rain = 0
KLO1 140948Z 15004KT 17/07 A2997 RMK A01 T01730067  RH  050%=      5-min Rain = 0
KLO1 140949Z 15004KT 17/07 A2997 RMK A01 T01720067  RH  050%=      5-min Rain = 0
KLO1 140950Z 15005KT 17/07 A2997 RMK A01 T01720067  RH  050%=      5-min Rain = 0
KLO1 140951Z 15005KT 17/07 A2997 RMK A01 T01710067  RH  050%=      5-min Rain = 0
KLO1 140952Z 14005KT 17/07 A2997 RMK A01 T01710067  RH  050%=      5-min Rain = 0
KLO1 140953Z 15005KT 17/07 A2997 RMK A01 T01710068  RH  051%=      5-min Rain = 0
KLO1 140954Z 15005KT 17/07 A2997 RMK A01 T01700068  RH  051%=      5-min Rain = 0
KLO1 140955Z 15005KT 17/07 A2997 RMK A01 T01700068  RH  051%=      5-min Rain = 0
KLO1 140956Z 15005KT 17/07 A2997 RMK A01 T01710068  RH  051%=      5-min Rain = 0
KLO1 140957Z 15005KT 17/07 A2997 RMK A01 T01700068  RH  051%=      5-min Rain = 0
KLO1 140958Z 16005KT 17/07 A2997 RMK A01 T01700068  RH  051%=      5-min Rain = 0
KLO1 140959Z 16005KT 17/07 A2997 RMK A01 T01710068  RH  051%=      5-min Rain = 0
KLO1 141000Z 16005KT 17/07 A2997 RMK A01 T01700068  RH  051%=      5-min Rain = 0
KLO1 141001Z 16005KT 17/07 A2997 RMK A01 T01710068  RH  051%=      5-min Rain = 0
KLO1 141002Z 16005KT 17/07 A2997 RMK A01 T01700068  RH  051%=      5-min Rain = 0
KLO1 141003Z 16005KT 17/07 A2997 RMK A01 T01700068  RH  051%=      5-min Rain = 0
KLO1 141004Z 16005KT 17/07 A2997 RMK A01 T01700068  RH  051%=      5-min Rain = 0
KLO1 141005Z 16005KT 17/07 A2997 RMK A01 T01700068  RH  051%=      5-min Rain = 0
KLO1 141006Z 16005KT 17/07 A2997 RMK A01 T01700069  RH  051%=      5-min Rain = 0
KLO1 141007Z 16005KT 17/07 A2997 RMK A01 T01700068  RH  051%=      5-min Rain = 0
KLO1 141008Z 16005KT 17/07 A2997 RMK A01 T01710068  RH  051%=      5-min Rain = 0
KLO1 141009Z 16005KT 17/07 A2997 RMK A01 T01700068  RH  051%=      5-min Rain = 0
KLO1 141010Z 16005KT 17/07 A2997 RMK A01 T01700069  RH  051%=      5-min Rain = 0
KLO1 141011Z 16005KT 17/07 A2997 RMK A01 T01700069  RH  051%=      5-min Rain = 0
KLO1 141012Z 16004KT 17/07 A2997 RMK A01 T01710069  RH  051%=      5-min Rain = 0
KLO1 141013Z 15004KT 17/07 A2997 RMK A01 T01710069  RH  051%=      5-min Rain = 0
KLO1 141014Z 15004KT 17/07 A2997 RMK A01 T01710069  RH  051%=      5-min Rain = 0
KLO1 141015Z 15004KT 17/07 A2997 RMK A01 T01710069  RH  051%=      5-min Rain = 0
KLO1 141016Z 15004KT 17/07 A2997 RMK A01 T01710069  RH  051%=      5-min Rain = 0
KLO1 141017Z 15004KT 17/07 A2997 RMK A01 T01710069  RH  051%=      5-min Rain = 0
KLO1 141018Z 15004KT 17/07 A2997 RMK A01 T01710070  RH  051%=      5-min Rain = 0
KLO1 141019Z 15004KT 17/07 A2997 RMK A01 T01710070  RH  051%=      5-min Rain = 0
KLO1 141020Z 15005KT 17/07 A2997 RMK A01 T01710070  RH  051%=      5-min Rain = 0
KLO1 141021Z 15005KT 17/07 A2997 RMK A01 T01710070  RH  051%=      5-min Rain = 0
KLO1 141022Z 15006KT 17/07 A2997 RMK A01 T01700069  RH  051%=      5-min Rain = 0
KLO1 141023Z 15006KT 17/07 A2997 RMK A01 T01700069  RH  051%=      5-min Rain = 0
KLO1 141024Z 16006KT 17/07 A2997 RMK A01 T01700069  RH  051%=      5-min Rain = 0
KLO1 141025Z 16005KT 17/07 A2997 RMK A01 T01700069  RH  051%=      5-min Rain = 0
KLO1 141026Z 16005KT 17/07 A2997 RMK A01 T01710070  RH  051%=      5-min Rain = 0
KLO1 141027Z 17006KT 17/07 A2997 RMK A01 T01710070  RH  051%=      5-min Rain = 0
KLO1 141028Z 17005KT 17/07 A2997 RMK A01 T01710070  RH  051%=      5-min Rain = 0
KLO1 141029Z 17005KT 17/07 A2997 RMK A01 T01710070  RH  051%=      5-min Rain = 0
KLO1 141030Z 17005KT 17/07 A2997 RMK A01 T01710070  RH  051%=      5-min Rain = 0
KLO1 141031Z 17004KT 17/07 A2997 RMK A01 T01710070  RH  051%=      5-min Rain = 0
KLO1 141032Z 17004KT 17/07 A2997 RMK A01 T01720070  RH  051%=      5-min Rain = 0
KLO1 141033Z 18004KT 17/07 A2997 RMK A01 T01720071  RH  051%=      5-min Rain = 0
KLO1 141034Z 17003KT 17/07 A2997 RMK A01 T01730071  RH  051%=      5-min Rain = 0
KLO1 141035Z 17003KT 17/07 A2998 RMK A01 T01730071  RH  051%=      5-min Rain = 0
KLO1 141036Z 17004KT 17/07 A2998 RMK A01 T01740071  RH  051%=      5-min Rain = 0
KLO1 141037Z 17004KT 17/07 A2998 RMK A01 T01740071  RH  051%=      5-min Rain = 0
KLO1 141038Z 16004KT 17/07 A2998 RMK A01 T01740071  RH  051%=      5-min Rain = 0
KLO1 141039Z 16004KT 18/07 A2998 RMK A01 T01750072  RH  051%=      5-min Rain = 0
KLO1 141040Z 16004KT 18/07 A2998 RMK A01 T01750072  RH  051%=      5-min Rain = 0
KLO1 141041Z 16004KT 18/07 A2998 RMK A01 T01760072  RH  050%=      5-min Rain = 0
KLO1 141042Z 16004KT 18/07 A2998 RMK A01 T01760072  RH  050%=      5-min Rain = 0
KLO1 141043Z 17004KT 18/07 A2998 RMK A01 T01760072  RH  050%=      5-min Rain = 0
KLO1 141044Z 17005KT 18/07 A2998 RMK A01 T01760072  RH  050%=      5-min Rain = 0
KLO1 141045Z 17004KT 18/07 A2998 RMK A01 T01760072  RH  050%=      5-min Rain = 0
KLO1 141046Z 17005KT 18/07 A2998 RMK A01 T01760072  RH  051%=      5-min Rain = 0
KLO1 141047Z 17005KT 18/07 A2998 RMK A01 T01760072  RH  051%=      5-min Rain = 0
KLO1 141048Z 17005KT 18/07 A2997 RMK A01 T01760073  RH  051%=      5-min Rain = 0
KLO1 141049Z 17005KT 18/07 A2997 RMK A01 T01760073  RH  051%=      5-min Rain = 0
KLO1 141050Z 17005KT 18/07 A2997 RMK A01 T01770073  RH  051%=      5-min Rain = 0
KLO1 141051Z 18004KT 18/07 A2997 RMK A01 T01770073  RH  051%=      5-min Rain = 0
KLO1 141052Z 17005KT 18/07 A2998 RMK A01 T01770073  RH  051%=      5-min Rain = 0
KLO1 141053Z 17005KT 18/07 A2998 RMK A01 T01770073  RH  051%=      5-min Rain = 0
KLO1 141054Z 17005KT 18/07 A2997 RMK A01 T01770073  RH  051%=      5-min Rain = 0
KLO1 141055Z 17005KT 18/07 A2997 RMK A01 T01770073  RH  051%=      5-min Rain = 0
KLO1 141056Z 17004KT 18/07 A2998 RMK A01 T01770073  RH  051%=      5-min Rain = 0
KLO1 141057Z 17004KT 18/07 A2998 RMK A01 T01770073  RH  051%=      5-min Rain = 0
KLO1 141058Z 17004KT 18/07 A2998 RMK A01 T01770073  RH  051%=      5-min Rain = 0
KLO1 141059Z 17003KT 18/07 A2998 RMK A01 T01770074  RH  051%=      5-min Rain = 0
KLO1 141100Z 17004KT 18/07 A2998 RMK A01 T01770074  RH  051%=      5-min Rain = 0
KLO1 141101Z 17004KT 18/07 A2998 RMK A01 T01770074  RH  051%=      5-min Rain = 0
KLO1 141102Z 16003KT 18/07 A2998 RMK A01 T01770074  RH  051%=      5-min Rain = 0
KLO1 141103Z 16003KT 18/07 A2998 RMK A01 T01760074  RH  051%=      5-min Rain = 0
KLO1 141104Z 16004KT 18/07 A2998 RMK A01 T01760074  RH  051%=      5-min Rain = 0
KLO1 141105Z 17005KT 18/08 A2998 RMK A01 T01760075  RH  051%=      5-min Rain = 0
KLO1 141106Z 16004KT 18/08 A2998 RMK A01 T01770076  RH  051%=      5-min Rain = 0
KLO1 141107Z 17004KT 18/08 A2998 RMK A01 T01770075  RH  051%=      5-min Rain = 0
KLO1 141108Z 17003KT 18/08 A2998 RMK A01 T01770076  RH  051%=      5-min Rain = 0
KLO1 141109Z 18003KT 18/08 A2998 RMK A01 T01770076  RH  052%=      5-min Rain = 0
KLO1 141110Z 18003KT 18/08 A2998 RMK A01 T01780077  RH  052%=      5-min Rain = 0
KLO1 141111Z 18003KT 18/08 A2998 RMK A01 T01780077  RH  052%=      5-min Rain = 0
KLO1 141112Z 17004KT 18/08 A2998 RMK A01 T01780077  RH  052%=      5-min Rain = 0
KLO1 141113Z 17004KT 18/08 A2998 RMK A01 T01780077  RH  052%=      5-min Rain = 0
KLO1 141114Z 17004KT 18/08 A2998 RMK A01 T01780078  RH  052%=      5-min Rain = 0
KLO1 141115Z 17005KT 18/08 A2998 RMK A01 T01780078  RH  052%=      5-min Rain = 0
KLO1 141116Z 18003KT 18/08 A2998 RMK A01 T01790079  RH  052%=      5-min Rain = 0
KLO1 141117Z 18004KT 18/08 A2998 RMK A01 T01790079  RH  052%=      5-min Rain = 0
KLO1 141118Z 18004KT 18/08 A2998 RMK A01 T01790079  RH  052%=      5-min Rain = 0
KLO1 141119Z 19004KT 18/08 A2999 RMK A01 T01780079  RH  052%=      5-min Rain = 0
KLO1 141120Z 18004KT 18/08 A2999 RMK A01 T01790079  RH  052%=      5-min Rain = 0
KLO1 141121Z 18003KT 18/08 A2999 RMK A01 T01790080  RH  052%=      5-min Rain = 0
KLO1 141122Z 19004KT 18/08 A2999 RMK A01 T01790080  RH  052%=      5-min Rain = 0
KLO1 141123Z 19004KT 18/08 A2999 RMK A01 T01780080  RH  052%=      5-min Rain = 0
KLO1 141124Z 18005KT 18/08 A2999 RMK A01 T01790080  RH  053%=      5-min Rain = 0
KLO1 141125Z 19005KT 18/08 A2999 RMK A01 T01790080  RH  053%=      5-min Rain = 0
KLO1 141126Z 18006KT 18/08 A2999 RMK A01 T01790081  RH  053%=      5-min Rain = 0
KLO1 141127Z 18006KT 18/08 A2999 RMK A01 T01780081  RH  053%=      5-min Rain = 0
KLO1 141128Z 18005KT 18/08 A2999 RMK A01 T01790081  RH  053%=      5-min Rain = 0
KLO1 141129Z 18005KT 18/08 A2999 RMK A01 T01780081  RH  053%=      5-min Rain = 0
KLO1 141130Z 18005KT 18/08 A2999 RMK A01 T01780081  RH  053%=      5-min Rain = 0
KLO1 141131Z 18005KT 18/08 A2999 RMK A01 T01780082  RH  053%=      5-min Rain = 0
KLO1 141132Z 18005KT 18/08 A30 RMK A01 T01780082  RH  053%=      5-min Rain = 0
KLO1 141133Z 18005KT 18/08 A30 RMK A01 T01780082  RH  053%=      5-min Rain = 0
KLO1 141134Z 18006KT 18/08 A30 RMK A01 T01780082  RH  053%=      5-min Rain = 0
KLO1 141135Z 18006KT 18/08 A30 RMK A01 T01780082  RH  053%=      5-min Rain = 0
KLO1 141136Z 18006KT 18/08 A30 RMK A01 T01780082  RH  053%=      5-min Rain = 0
KLO1 141137Z 18007KT 18/08 A30 RMK A01 T01780082  RH  053%=      5-min Rain = 0
KLO1 141138Z 18007KT 18/08 A30 RMK A01 T01780082  RH  053%=      5-min Rain = 0
KLO1 141139Z 18007KT 18/08 A30 RMK A01 T01780083  RH  053%=      5-min Rain = 0
KLO1 141140Z 18007KT 18/08 A30 RMK A01 T01790083  RH  053%=      5-min Rain = 0
KLO1 141141Z 18006KT 18/08 A30 RMK A01 T01790083  RH  053%=      5-min Rain = 0
KLO1 141142Z 17007KT 18/08 A30 RMK A01 T01790083  RH  053%=      5-min Rain = 0
KLO1 141143Z 18006KT 18/08 A2999 RMK A01 T01790083  RH  053%=      5-min Rain = 0
KLO1 141144Z 18006KT 18/08 A2999 RMK A01 T01790083  RH  053%=      5-min Rain = 0
KLO1 141145Z 18007KT 18/08 A2999 RMK A01 T01800083  RH  053%=      5-min Rain = 0
KLO1 141146Z 18007KT 18/08 A2999 RMK A01 T01800084  RH  053%=      5-min Rain = 0
KLO1 141147Z 18007KT 18/08 A2999 RMK A01 T01800083  RH  053%=      5-min Rain = 0
KLO1 141148Z 18006KT 18/08 A2999 RMK A01 T01800084  RH  053%=      5-min Rain = 0
KLO1 141149Z 18007KT 18/08 A2999 RMK A01 T01810084  RH  053%=      5-min Rain = 0
KLO1 141150Z 18007KT 18/08 A2999 RMK A01 T01810084  RH  053%=      5-min Rain = 0
KLO1 141151Z 18007KT 18/08 A2999 RMK A01 T01810084  RH  053%=      5-min Rain = 0
KLO1 141152Z 18007KT 18/08 A2999 RMK A01 T01810084  RH  053%=      5-min Rain = 0
KLO1 141153Z 18007KT 18/08 A2999 RMK A01 T01810084  RH  053%=      5-min Rain = 0
KLO1 141154Z 18006KT 18/08 A2999 RMK A01 T01810084  RH  053%=      5-min Rain = 0
KLO1 141155Z 18007KT 18/08 A2999 RMK A01 T01810084  RH  053%=      5-min Rain = 0
KLO1 141156Z 18007KT 18/09 A2999 RMK A01 T01810085  RH  053%=      5-min Rain = 0
KLO1 141157Z 18006KT 18/09 A2999 RMK A01 T01820085  RH  053%=      5-min Rain = 0
KLO1 141158Z 18006KT 18/09 A2999 RMK A01 T01810085  RH  053%=      5-min Rain = 0
KLO1 141159Z 18006KT 18/09 A2999 RMK A01 T01810085  RH  053%=      5-min Rain = 0
KLO1 141200Z 18006KT 18/09 A2999 RMK A01 T01810085  RH  053%=      5-min Rain = 0
KLO1 141201Z 18006KT 18/09 A2999 RMK A01 T01820085  RH  053%=      5-min Rain = 0
KLO1 141202Z 19006KT 18/09 A2999 RMK A01 T01820085  RH  053%=      5-min Rain = 0
KLO1 141203Z 19006KT 18/09 A2999 RMK A01 T01820085  RH  053%=      5-min Rain = 0
KLO1 141204Z 18006KT 18/09 A2999 RMK A01 T01810085  RH  053%=      5-min Rain = 0
KLO1 141205Z 18007KT 18/09 A2999 RMK A01 T01810085  RH  053%=      5-min Rain = 0
KLO1 141206Z 18007KT 18/09 A2999 RMK A01 T01810085  RH  053%=      5-min Rain = 0
KLO1 141207Z 18007KT 18/09 A2999 RMK A01 T01810086  RH  053%=      5-min Rain = 0
KLO1 141208Z 18007KT 18/09 A2999 RMK A01 T01810085  RH  053%=      5-min Rain = 0
KLO1 141209Z 18006KT 18/09 A2999 RMK A01 T01810085  RH  053%=      5-min Rain = 0
KLO1 141210Z 17007KT 18/09 A2999 RMK A01 T01810085  RH  053%=      5-min Rain = 0
KLO1 141211Z 17007KT 18/09 A2999 RMK A01 T01810086  RH  053%=      5-min Rain = 0
KLO1 141212Z 17007KT 18/09 A2999 RMK A01 T01810085  RH  053%=      5-min Rain = 0
KLO1 141213Z 18007KT 18/09 A2999 RMK A01 T01810085  RH  053%=      5-min Rain = 0
KLO1 141214Z 18007KT 18/09 A2999 RMK A01 T01820086  RH  053%=      5-min Rain = 0
KLO1 141215Z 18007KT 18/09 A2999 RMK A01 T01820086  RH  053%=      5-min Rain = 0
KLO1 141216Z 17008KT 18/09 A2999 RMK A01 T01820085  RH  053%=      5-min Rain = 0
KLO1 141217Z 18007KT 18/09 A2999 RMK A01 T01820085  RH  053%=      5-min Rain = 0
KLO1 141218Z 18007KT 18/09 A2999 RMK A01 T01820085  RH  053%=      5-min Rain = 0
KLO1 141219Z 18007KT 18/09 A2999 RMK A01 T01820085  RH  053%=      5-min Rain = 0
KLO1 141220Z 18007KT 18/09 A2999 RMK A01 T01820085  RH  053%=      5-min Rain = 0
KLO1 141221Z 18007KT 18/09 A2999 RMK A01 T01820085  RH  053%=      5-min Rain = 0
KLO1 141222Z 18007KT 18/09 A2999 RMK A01 T01820085  RH  053%=      5-min Rain = 0
KLO1 141223Z 18007KT 18/09 A2999 RMK A01 T01820085  RH  053%=      5-min Rain = 0
KLO1 141224Z 18007KT 18/09 A2999 RMK A01 T01830086  RH  053%=      5-min Rain = 0
KLO1 141225Z 18006KT 18/09 A2999 RMK A01 T01830085  RH  053%=      5-min Rain = 0
KLO1 141226Z 18007KT 18/09 A2999 RMK A01 T01830085  RH  053%=      5-min Rain = 0
KLO1 141227Z 18006KT 18/09 A2999 RMK A01 T01830086  RH  053%=      5-min Rain = 0
KLO1 141228Z 18007KT 18/09 A2999 RMK A01 T01830085  RH  053%=      5-min Rain = 0
KLO1 141229Z 18007KT 18/09 A30 RMK A01 T01820085  RH  053%=      5-min Rain = 0
KLO1 141230Z 18006KT 18/09 A30 RMK A01 T01820085  RH  053%=      5-min Rain = 0
KLO1 141231Z 18008KT 18/09 A30 RMK A01 T01820085  RH  053%=      5-min Rain = 0
KLO1 141232Z 18006KT 18/09 A30 RMK A01 T01820085  RH  053%=      5-min Rain = 0
KLO1 141233Z 18007KT 18/09 A30 RMK A01 T01820085  RH  053%=      5-min Rain = 0
KLO1 141234Z 18006KT 18/09 A30 RMK A01 T01820086  RH  053%=      5-min Rain = 0
KLO1 141235Z 18006KT 18/09 A30 RMK A01 T01820086  RH  053%=      5-min Rain = 0
KLO1 141236Z 18008KT 18/09 A30 RMK A01 T01820085  RH  053%=      5-min Rain = 0
KLO1 141237Z 18007KT 18/09 A30 RMK A01 T01820085  RH  053%=      5-min Rain = 0
KLO1 141238Z 18008KT 18/09 A30 RMK A01 T01820085  RH  053%=      5-min Rain = 0
KLO1 141239Z 18008KT 18/09 A30 RMK A01 T01820085  RH  053%=      5-min Rain = 0
KLO1 141240Z 18008KT 18/09 A30 RMK A01 T01820085  RH  053%=      5-min Rain = 0
KLO1 141241Z 18008KT 18/09 A30 RMK A01 T01820085  RH  053%=      5-min Rain = 0
KLO1 141242Z 18009KT 18/09 A30 RMK A01 T01820085  RH  053%=      5-min Rain = 0
KLO1 141243Z 18008KT 18/09 A30 RMK A01 T01820085  RH  053%=      5-min Rain = 0
KLO1 141244Z 19007KT 18/09 A30 RMK A01 T01830085  RH  053%=      5-min Rain = 0
KLO1 141245Z 19009KT 18/09 A30 RMK A01 T01830085  RH  053%=      5-min Rain = 0
KLO1 141246Z 19008KT 18/09 A30 RMK A01 T01830085  RH  053%=      5-min Rain = 0
KLO1 141247Z 18009KT 18/08 A30 RMK A01 T01830084  RH  053%=      5-min Rain = 0
KLO1 141248Z 18009KT 18/08 A30 RMK A01 T01830084  RH  053%=      5-min Rain = 0
KLO1 141249Z 18008KT 18/08 A30 RMK A01 T01830084  RH  053%=      5-min Rain = 0
KLO1 141250Z 18008KT 18/08 A30 RMK A01 T01830084  RH  052%=      5-min Rain = 0
KLO1 141251Z 18008KT 18/08 A30 RMK A01 T01830084  RH  052%=      5-min Rain = 0
KLO1 141252Z 18008KT 18/08 A30 RMK A01 T01830084  RH  052%=      5-min Rain = 0
KLO1 141253Z 18009KT 18/08 A30 RMK A01 T01830084  RH  052%=      5-min Rain = 0
KLO1 141254Z 18008KT 18/08 A30 RMK A01 T01830084  RH  052%=      5-min Rain = 0
KLO1 141255Z 18009KT 18/08 A30 RMK A01 T01830084  RH  052%=      5-min Rain = 0
KLO1 141256Z 18009KT 18/08 A30 RMK A01 T01830083  RH  052%=      5-min Rain = 0
KLO1 141257Z 18008KT 18/08 A30 RMK A01 T01840083  RH  052%=      5-min Rain = 0
KLO1 141258Z 19008KT 18/08 A30 RMK A01 T01840083  RH  052%=      5-min Rain = 0
KLO1 141259Z 19009KT 18/08 A30 RMK A01 T01840083  RH  052%=      5-min Rain = 0
KLO1 141300Z 19009KT 18/08 A30 RMK A01 T01840083  RH  052%=      5-min Rain = 0
KLO1 141301Z 18009KT 18/08 A30 RMK A01 T01840083  RH  052%=      5-min Rain = 0
KLO1 141302Z 19008KT 18/08 A30 RMK A01 T01840083  RH  052%=      5-min Rain = 0
KLO1 141303Z 19009KT 18/08 A30 RMK A01 T01840083  RH  052%=      5-min Rain = 0
KLO1 141304Z 19008KT 18/08 A30 RMK A01 T01840083  RH  052%=      5-min Rain = 0
KLO1 141305Z 19008KT 18/08 A30 RMK A01 T01840083  RH  052%=      5-min Rain = 0
KLO1 141306Z 19010KT 18/08 A30 RMK A01 T01840083  RH  052%=      5-min Rain = 0
KLO1 141307Z 19009KT 18/08 A3001 RMK A01 T01840083  RH  052%=      5-min Rain = 0
KLO1 141308Z 19008KT 19/08 A3001 RMK A01 T01850083  RH  052%=      5-min Rain = 0
KLO1 141309Z 19008KT 19/08 A3001 RMK A01 T01850083  RH  052%=      5-min Rain = 0
KLO1 141310Z 19009KT 18/08 A3001 RMK A01 T01840083  RH  052%=      5-min Rain = 0
KLO1 141311Z 20009KT 19/08 A3001 RMK A01 T01850083  RH  052%=      5-min Rain = 0
KLO1 141312Z 19011KT 19/08 A3001 RMK A01 T01850083  RH  052%=      5-min Rain = 0
KLO1 141313Z 19009KT 19/08 A3001 RMK A01 T01850083  RH  051%=      5-min Rain = 0
KLO1 141314Z 19007KT 19/08 A3001 RMK A01 T01850083  RH  051%=      5-min Rain = 0
KLO1 141315Z 19008KT 19/08 A3001 RMK A01 T01850083  RH  051%=      5-min Rain = 0
KLO1 141316Z 19008KT 19/08 A3001 RMK A01 T01860083  RH  051%=      5-min Rain = 0
KLO1 141317Z 19007KT 19/08 A3001 RMK A01 T01860084  RH  051%=      5-min Rain = 0
KLO1 141318Z 19008KT 19/08 A3001 RMK A01 T01850083  RH  051%=      5-min Rain = 0
KLO1 141319Z 19007KT 19/08 A3001 RMK A01 T01850083  RH  051%=      5-min Rain = 0
KLO1 141320Z 19010KT 19/08 A3001 RMK A01 T01860083  RH  051%=      5-min Rain = 0
KLO1 141321Z 19010KT 19/08 A3001 RMK A01 T01860083  RH  051%=      5-min Rain = 0
KLO1 141322Z 19007KT 19/08 A3001 RMK A01 T01860083  RH  051%=      5-min Rain = 0
KLO1 141323Z 19007KT 19/08 A3001 RMK A01 T01860083  RH  051%=      5-min Rain = 0
KLO1 141324Z 19008KT 19/08 A3001 RMK A01 T01860083  RH  051%=      5-min Rain = 0
KLO1 141325Z 19008KT 19/08 A3001 RMK A01 T01860083  RH  051%=      5-min Rain = 0
KLO1 141326Z 19009KT 19/08 A30 RMK A01 T01860083  RH  051%=      5-min Rain = 0
KLO1 141327Z 19009KT 19/08 A30 RMK A01 T01860083  RH  051%=      5-min Rain = 0
KLO1 141328Z 19009KT 19/08 A30 RMK A01 T01860083  RH  051%=      5-min Rain = 0
KLO1 141329Z 19010KT 19/08 A30 RMK A01 T01870083  RH  051%=      5-min Rain = 0
KLO1 141330Z 18009KT 19/08 A30 RMK A01 T01870083  RH  051%=      5-min Rain = 0
KLO1 141331Z 18007KT 19/08 A30 RMK A01 T01870083  RH  051%=      5-min Rain = 0
KLO1 141332Z 19009KT 19/08 A30 RMK A01 T01870083  RH  051%=      5-min Rain = 0
KLO1 141333Z 19008KT 19/08 A30 RMK A01 T01870083  RH  051%=      5-min Rain = 0
KLO1 141334Z 19009KT 19/08 A3001 RMK A01 T01870083  RH  051%=      5-min Rain = 0
KLO1 141335Z 19008KT 19/08 A3001 RMK A01 T01870083  RH  051%=      5-min Rain = 0
KLO1 141336Z 19009KT 19/08 A3001 RMK A01 T01870083  RH  051%=      5-min Rain = 0
KLO1 141337Z 19009KT 19/08 A3001 RMK A01 T01870083  RH  051%=      5-min Rain = 0
KLO1 141338Z 19010KT 19/08 A3001 RMK A01 T01880083  RH  051%=      5-min Rain = 0
KLO1 141339Z 19010KT 19/08 A3001 RMK A01 T01880083  RH  050%=      5-min Rain = 0
KLO1 141340Z 19010KT 19/08 A3001 RMK A01 T01880083  RH  050%=      5-min Rain = 0
KLO1 141341Z 19011KT 19/08 A3001 RMK A01 T01880083  RH  050%=      5-min Rain = 0
KLO1 141342Z 19010KT 19/08 A3001 RMK A01 T01890083  RH  050%=      5-min Rain = 0
KLO1 141343Z 19011KT 19/08 A3001 RMK A01 T01890083  RH  050%=      5-min Rain = 0
KLO1 141344Z 19010KT 19/08 A3001 RMK A01 T01890083  RH  050%=      5-min Rain = 0
KLO1 141345Z 19010KT 19/08 A3001 RMK A01 T01890083  RH  050%=      5-min Rain = 0
KLO1 141346Z 19011KT 19/08 A3001 RMK A01 T01890083  RH  050%=      5-min Rain = 0
KLO1 141347Z 19011KT 19/08 A3001 RMK A01 T01900083  RH  050%=      5-min Rain = 0
KLO1 141348Z 20010KT 19/08 A3001 RMK A01 T01900083  RH  050%=      5-min Rain = 0
KLO1 141349Z 19010KT 19/08 A3001 RMK A01 T01900083  RH  050%=      5-min Rain = 0
KLO1 141350Z 19008KT 19/08 A3001 RMK A01 T01910083  RH  050%=      5-min Rain = 0
KLO1 141351Z 19010KT 19/08 A3001 RMK A01 T01910083  RH  050%=      5-min Rain = 0
KLO1 141352Z 19010KT 19/08 A3001 RMK A01 T01910083  RH  050%=      5-min Rain = 0
KLO1 141353Z 19010KT 19/08 A3001 RMK A01 T01920084  RH  049%=      5-min Rain = 0
KLO1 141354Z 19011KT 19/08 A3001 RMK A01 T01920083  RH  049%=      5-min Rain = 0
KLO1 141355Z 20009KT 19/08 A3001 RMK A01 T01920084  RH  049%=      5-min Rain = 0
KLO1 141356Z 19008G13KT 19/08 A3001 RMK A01 T01920084  RH  049%=      5-min Rain = 0
KLO1 141357Z 20009KT 19/08 A3001 RMK A01 T01930084  RH  049%=      5-min Rain = 0
KLO1 141358Z 19009KT 19/08 A3001 RMK A01 T01930084  RH  049%=      5-min Rain = 0
KLO1 141359Z 19009KT 19/08 A3002 RMK A01 T01930084  RH  049%=      5-min Rain = 0
KLO1 141400Z 19009KT 19/08 A3002 RMK A01 T01930084  RH  049%=      5-min Rain = 0
KLO1 141401Z 19008KT 19/08 A3002 RMK A01 T01940084  RH  049%=      5-min Rain = 0
KLO1 141402Z 19009KT 19/09 A3002 RMK A01 T01940085  RH  049%=      5-min Rain = 0
KLO1 141403Z 19009KT 19/09 A3002 RMK A01 T01940085  RH  049%=      5-min Rain = 0
KLO1 141404Z 19008KT 19/09 A3002 RMK A01 T01940085  RH  049%=      5-min Rain = 0
KLO1 141405Z 19007KT 20/09 A3002 RMK A01 T01950085  RH  049%=      5-min Rain = 0
KLO1 141406Z 20009KT 20/09 A3002 RMK A01 T01950085  RH  049%=      5-min Rain = 0
KLO1 141407Z 20008KT 20/09 A3002 RMK A01 T01950086  RH  049%=      5-min Rain = 0
KLO1 141408Z 20008KT 20/09 A3002 RMK A01 T01950086  RH  049%=      5-min Rain = 0
KLO1 141409Z 20009KT 20/09 A3002 RMK A01 T01960086  RH  049%=      5-min Rain = 0
KLO1 141410Z 20009KT 20/09 A3002 RMK A01 T01960086  RH  049%=      5-min Rain = 0
KLO1 141411Z 20008KT 20/09 A3003 RMK A01 T01960087  RH  049%=      5-min Rain = 0
KLO1 141412Z 20008KT 20/09 A3003 RMK A01 T01970087  RH  049%=      5-min Rain = 0
KLO1 141413Z 20007KT 20/09 A3003 RMK A01 T01960087  RH  049%=      5-min Rain = 0
KLO1 141414Z 20008KT 20/09 A3003 RMK A01 T01970087  RH  049%=      5-min Rain = 0
KLO1 141415Z 20007KT 20/09 A3003 RMK A01 T01970087  RH  049%=      5-min Rain = 0
KLO1 141416Z 20008KT 20/09 A3003 RMK A01 T01970088  RH  049%=      5-min Rain = 0
KLO1 141417Z 21006KT 20/09 A3003 RMK A01 T01980088  RH  049%=      5-min Rain = 0
KLO1 141418Z 20006KT 20/09 A3003 RMK A01 T01980088  RH  049%=      5-min Rain = 0
KLO1 141419Z 20006KT 20/09 A3003 RMK A01 T01980089  RH  049%=      5-min Rain = 0
KLO1 141420Z 21009KT 20/09 A3003 RMK A01 T01980088  RH  049%=      5-min Rain = 0
KLO1 141421Z 21008KT 20/09 A3003 RMK A01 T01980089  RH  049%=      5-min Rain = 0
KLO1 141422Z 21007KT 20/09 A3003 RMK A01 T01980090  RH  049%=      5-min Rain = 0
KLO1 141423Z 21009KT 20/09 A3003 RMK A01 T01990090  RH  049%=      5-min Rain = 0
KLO1 141424Z 21008KT 20/09 A3003 RMK A01 T01990090  RH  049%=      5-min Rain = 0
KLO1 141425Z 21008KT 20/09 A3003 RMK A01 T01990090  RH  049%=      5-min Rain = 0
KLO1 141426Z 20008KT 20/09 A3003 RMK A01 T01990091  RH  050%=      5-min Rain = 0
KLO1 141427Z 20008KT 20/09 A3003 RMK A01 T01990091  RH  050%=      5-min Rain = 0
KLO1 141428Z 20009KT 20/09 A3003 RMK A01 T01990092  RH  050%=      5-min Rain = 0
KLO1 141429Z 20009KT 20/09 A3003 RMK A01 T02000092  RH  050%=      5-min Rain = 0
KLO1 141430Z 20011KT 20/09 A3003 RMK A01 T02000092  RH  050%=      5-min Rain = 0
KLO1 141431Z 20012KT 20/09 A3003 RMK A01 T02000093  RH  050%=      5-min Rain = 0
KLO1 141432Z 20010KT 20/09 A3003 RMK A01 T01990093  RH  050%=      5-min Rain = 0
KLO1 141433Z 20011KT 20/09 A3003 RMK A01 T01990093  RH  050%=      5-min Rain = 0
KLO1 141434Z 20009KT 20/09 A3003 RMK A01 T01990093  RH  051%=      5-min Rain = 0
KLO1 141435Z 20008KT 20/09 A3003 RMK A01 T01990094  RH  051%=      5-min Rain = 0
KLO1 141436Z 21007KT 20/09 A3003 RMK A01 T01990094  RH  051%=      5-min Rain = 0
KLO1 141437Z 21008KT 20/09 A3003 RMK A01 T01990094  RH  051%=      5-min Rain = 0
KLO1 141438Z 21007KT 20/09 A3003 RMK A01 T01990094  RH  051%=      5-min Rain = 0
KLO1 141439Z 22007KT 20/09 A3003 RMK A01 T01990094  RH  051%=      5-min Rain = 0
KLO1 141440Z 22006KT 20/10 A3003 RMK A01 T01990095  RH  051%=      5-min Rain = 0
KLO1 141441Z 21007KT 20/10 A3003 RMK A01 T02000096  RH  051%=      5-min Rain = 0
KLO1 141442Z 21006KT 20/10 A3003 RMK A01 T02000096  RH  051%=      5-min Rain = 0
KLO1 141443Z 22008KT 20/10 A3003 RMK A01 T02010097  RH  051%=      5-min Rain = 0
KLO1 141444Z 22006KT 20/10 A3003 RMK A01 T02000096  RH  051%=      5-min Rain = 0
KLO1 141445Z 21004KT 20/10 A3003 RMK A01 T02010097  RH  051%=      5-min Rain = 0
KLO1 141446Z 22007KT 20/10 A3003 RMK A01 T02010097  RH  051%=      5-min Rain = 0
KLO1 141447Z 21007KT 20/10 A3003 RMK A01 T02010098  RH  051%=      5-min Rain = 0
KLO1 141448Z 20008KT 20/10 A3003 RMK A01 T02010098  RH  051%=      5-min Rain = 0
KLO1 141449Z 21011KT 20/10 A3003 RMK A01 T02010099  RH  052%=      5-min Rain = 0
KLO1 141450Z 21011KT 20/10 A3004 RMK A01 T02010100  RH  052%=      5-min Rain = 0
KLO1 141451Z 21010KT 20/10 A3003 RMK A01 T02010101  RH  052%=      5-min Rain = 0
KLO1 141452Z 20010KT 20/10 A3003 RMK A01 T02010101  RH  053%=      5-min Rain = 0
KLO1 141453Z 20010KT 20/10 A3003 RMK A01 T02010101  RH  053%=      5-min Rain = 0
KLO1 141454Z 20007KT 20/10 A3003 RMK A01 T02010101  RH  053%=      5-min Rain = 0
KLO1 141455Z 20008KT 20/10 A3003 RMK A01 T02010102  RH  053%=      5-min Rain = 0
KLO1 141456Z 20008KT 20/10 A3003 RMK A01 T02010102  RH  053%=      5-min Rain = 0
KLO1 141457Z 19011KT 20/10 A3003 RMK A01 T02010102  RH  053%=      5-min Rain = 0
KLO1 141458Z 19009KT 20/10 A3003 RMK A01 T02010102  RH  053%=      5-min Rain = 0
KLO1 141459Z 19009KT 20/10 A3003 RMK A01 T02000102  RH  053%=      5-min Rain = 0
KLO1 141500Z 19010KT 20/10 A3003 RMK A01 T02000102  RH  053%=      5-min Rain = 0
KLO1 141501Z 19010KT 20/10 A3003 RMK A01 T02000102  RH  053%=      5-min Rain = 0
KLO1 141502Z 19010KT 20/10 A3003 RMK A01 T02000102  RH  053%=      5-min Rain = 0
KLO1 141503Z 19010KT 20/10 A3003 RMK A01 T01990103  RH  054%=      5-min Rain = 0
KLO1 141504Z 19009KT 20/10 A3003 RMK A01 T01990104  RH  054%=      5-min Rain = 0
KLO1 141505Z 19009KT 20/10 A3003 RMK A01 T01990104  RH  054%=      5-min Rain = 0
KLO1 141506Z 19009KT 20/10 A3003 RMK A01 T01990104  RH  054%=      5-min Rain = 0
KLO1 141507Z 19010KT 20/10 A3003 RMK A01 T01990104  RH  054%=      5-min Rain = 0
KLO1 141508Z 19008KT 20/11 A3004 RMK A01 T02000105  RH  054%=      5-min Rain = 0
KLO1 141509Z 20010KT 20/11 A3004 RMK A01 T02000105  RH  054%=      5-min Rain = 0
KLO1 141510Z 19009KT 20/11 A3004 RMK A01 T02000106  RH  054%=      5-min Rain = 0
KLO1 141511Z 19009KT 20/11 A3004 RMK A01 T02000106  RH  054%=      5-min Rain = 0
KLO1 141512Z 21008KT 20/11 A3004 RMK A01 T02000106  RH  055%=      5-min Rain = 0
KLO1 141513Z 21009KT 20/11 A3004 RMK A01 T02010106  RH  055%=      5-min Rain = 0
KLO1 141514Z 20010KT 20/11 A3004 RMK A01 T02010107  RH  054%=      5-min Rain = 0
KLO1 141515Z 20008KT 20/11 A3004 RMK A01 T02010107  RH  054%=      5-min Rain = 0
KLO1 141516Z 19009KT 20/11 A3003 RMK A01 T02010107  RH  055%=      5-min Rain = 0
KLO1 141517Z 19012KT 20/11 A3003 RMK A01 T02010108  RH  055%=      5-min Rain = 0
KLO1 141518Z 19012KT 20/11 A3003 RMK A01 T02010108  RH  055%=      5-min Rain = 0
KLO1 141519Z 19011KT 20/11 A3004 RMK A01 T02010108  RH  055%=      5-min Rain = 0
KLO1 141520Z 20012KT 20/11 A3004 RMK A01 T02010109  RH  055%=      5-min Rain = 0
KLO1 141521Z 20011KT 20/11 A3004 RMK A01 T02010109  RH  055%=      5-min Rain = 0
KLO1 141522Z 20013KT 20/11 A3004 RMK A01 T02010109  RH  055%=      5-min Rain = 0
KLO1 141523Z 20013KT 20/11 A3004 RMK A01 T02010109  RH  055%=      5-min Rain = 0
KLO1 141524Z 20011KT 20/11 A3004 RMK A01 T02010110  RH  056%=      5-min Rain = 0
KLO1 141525Z 20013KT 20/11 A3004 RMK A01 T02020110  RH  056%=      5-min Rain = 0
KLO1 141526Z 20013KT 20/11 A3004 RMK A01 T02020110  RH  056%=      5-min Rain = 0
KLO1 141527Z 20011KT 20/11 A3004 RMK A01 T02020110  RH  056%=      5-min Rain = 0
KLO1 141528Z 19013KT 20/11 A3004 RMK A01 T02020110  RH  055%=      5-min Rain = 0
KLO1 141529Z 19011KT 20/11 A3004 RMK A01 T02020109  RH  055%=      5-min Rain = 0
KLO1 141530Z 19014KT 20/11 A3004 RMK A01 T02020109  RH  055%=      5-min Rain = 0
KLO1 141531Z 19014KT 20/11 A3004 RMK A01 T02020109  RH  055%=      5-min Rain = 0
KLO1 141532Z 19012KT 20/11 A3004 RMK A01 T02010109  RH  055%=      5-min Rain = 0
KLO1 141533Z 19012KT 20/11 A3004 RMK A01 T02010109  RH  056%=      5-min Rain = 0
KLO1 141534Z 20010KT 20/11 A3004 RMK A01 T02010110  RH  056%=      5-min Rain = 0
KLO1 141535Z 20010KT 20/11 A3003 RMK A01 T02010111  RH  056%=      5-min Rain = 0
KLO1 141536Z 20009KT 20/11 A3003 RMK A01 T02010111  RH  056%=      5-min Rain = 0
KLO1 141537Z 20013KT 20/11 A3004 RMK A01 T02020112  RH  056%=      5-min Rain = 0
KLO1 141538Z 20013KT 20/11 A3004 RMK A01 T02010113  RH  057%=      5-min Rain = 0
KLO1 141539Z 20012G17KT 20/11 A3004 RMK A01 T02010114  RH  057%=      5-min Rain = 0
KLO1 141540Z 21014KT 20/12 A3004 RMK A01 T02010115  RH  058%=      5-min Rain = 0
KLO1 141541Z 20015KT 20/12 A3004 RMK A01 T02000115  RH  058%=      5-min Rain = 0
KLO1 141542Z 20015KT 20/12 A3004 RMK A01 T02000116  RH  058%=      5-min Rain = 0
KLO1 141543Z 20014KT 20/12 A3004 RMK A01 T02000117  RH  059%=      5-min Rain = 0
KLO1 141544Z 20013KT 20/12 A3004 RMK A01 T01990116  RH  059%=      5-min Rain = 0
KLO1 141545Z 19014KT 20/12 A3004 RMK A01 T02000116  RH  059%=      5-min Rain = 0
KLO1 141546Z 19015KT 20/12 A3004 RMK A01 T02000116  RH  059%=      5-min Rain = 0
KLO1 141547Z 20015KT 20/12 A3004 RMK A01 T02000117  RH  059%=      5-min Rain = 0
KLO1 141548Z 20013KT 20/12 A3004 RMK A01 T01990117  RH  059%=      5-min Rain = 0
KLO1 141549Z 20012KT 20/12 A3004 RMK A01 T01990117  RH  059%=      5-min Rain = 0
KLO1 141550Z 20012KT 20/12 A3004 RMK A01 T02000117  RH  059%=      5-min Rain = 0
KLO1 141551Z 20013KT 20/12 A3004 RMK A01 T02000117  RH  059%=      5-min Rain = 0
KLO1 141552Z 19013KT 20/12 A3004 RMK A01 T02010118  RH  059%=      5-min Rain = 0
KLO1 141553Z 19013KT 20/12 A3004 RMK A01 T02010117  RH  058%=      5-min Rain = 0
KLO1 141554Z 20013KT 20/12 A3004 RMK A01 T02010118  RH  059%=      5-min Rain = 0
KLO1 141555Z 21013KT 20/12 A3004 RMK A01 T02010118  RH  059%=      5-min Rain = 0
KLO1 141556Z 21013KT 20/12 A3004 RMK A01 T02010118  RH  059%=      5-min Rain = 0
KLO1 141557Z 21013KT 20/12 A3004 RMK A01 T02010118  RH  059%=      5-min Rain = 0
KLO1 141558Z 21012KT 20/12 A3004 RMK A01 T02010118  RH  059%=      5-min Rain = 0
KLO1 141559Z 20009KT 20/12 A3004 RMK A01 T02020118  RH  059%=      5-min Rain = 0
KLO1 141600Z 19010KT 20/12 A3004 RMK A01 T02030119  RH  059%=      5-min Rain = 0
KLO1 141601Z 19012KT 20/12 A3004 RMK A01 T02040119  RH  058%=      5-min Rain = 0
KLO1 141602Z 19011KT 20/12 A3004 RMK A01 T02040119  RH  058%=      5-min Rain = 0
KLO1 141603Z 20011KT 20/12 A3004 RMK A01 T02040120  RH  058%=      5-min Rain = 0
KLO1 141604Z 20011KT 21/12 A3004 RMK A01 T02060120  RH  058%=      5-min Rain = 0
KLO1 141605Z 20010KT 21/12 A3004 RMK A01 T02060119  RH  058%=      5-min Rain = 0
KLO1 141606Z 20009KT 21/12 A3004 RMK A01 T02050120  RH  058%=      5-min Rain = 0
KLO1 141607Z 20009KT 21/12 A3004 RMK A01 T02050120  RH  058%=      5-min Rain = 0
KLO1 141608Z 21012KT 21/12 A3003 RMK A01 T02060121  RH  058%=      5-min Rain = 0
KLO1 141609Z 21012KT 21/12 A3003 RMK A01 T02060121  RH  058%=      5-min Rain = 0
KLO1 141610Z 21010KT 21/12 A3003 RMK A01 T02050121  RH  059%=      5-min Rain = 0
KLO1 141611Z 21008KT 21/12 A3003 RMK A01 T02050122  RH  059%=      5-min Rain = 0
KLO1 141612Z 21008KT 21/12 A3003 RMK A01 T02060122  RH  059%=      5-min Rain = 0
KLO1 141613Z 21010KT 21/12 A3003 RMK A01 T02070123  RH  058%=      5-min Rain = 0
KLO1 141614Z 20010KT 21/12 A3003 RMK A01 T02070123  RH  058%=      5-min Rain = 0
KLO1 141615Z 19008KT 21/12 A3003 RMK A01 T02080123  RH  058%=      5-min Rain = 0
KLO1 141616Z 19008KT 21/12 A3003 RMK A01 T02080123  RH  058%=      5-min Rain = 0
KLO1 141617Z 21008KT 21/13 A3003 RMK A01 T02090125  RH  059%=      5-min Rain = 0
KLO1 141618Z 21009KT 21/13 A3003 RMK A01 T02100125  RH  058%=      5-min Rain = 0
KLO1 141619Z 21008KT 21/13 A3003 RMK A01 T02110126  RH  058%=      5-min Rain = 0
KLO1 141620Z 20009KT 21/13 A3003 RMK A01 T02110126  RH  058%=      5-min Rain = 0
KLO1 141621Z 18009KT 21/13 A3003 RMK A01 T02120125  RH  057%=      5-min Rain = 0
KLO1 141622Z 20011KT 21/12 A3003 RMK A01 T02110124  RH  058%=      5-min Rain = 0
KLO1 141623Z 20010KT 21/12 A3003 RMK A01 T02100124  RH  058%=      5-min Rain = 0
KLO1 141624Z 20008KT 21/12 A3003 RMK A01 T02100124  RH  058%=      5-min Rain = 0
KLO1 141625Z 20009KT 21/12 A3004 RMK A01 T02100124  RH  058%=      5-min Rain = 0
KLO1 141626Z 19012KT 21/13 A3003 RMK A01 T02110125  RH  058%=      5-min Rain = 0
KLO1 141627Z 19011KT 21/13 A3003 RMK A01 T02100126  RH  059%=      5-min Rain = 0
KLO1 141628Z 19010KT 21/13 A3003 RMK A01 T02090127  RH  059%=      5-min Rain = 0
KLO1 141629Z 19010KT 21/13 A3003 RMK A01 T02100127  RH  059%=      5-min Rain = 0
KLO1 141630Z 20010KT 21/13 A3003 RMK A01 T02090127  RH  059%=      5-min Rain = 0
KLO1 141631Z 19009KT 21/13 A3003 RMK A01 T02090128  RH  060%=      5-min Rain = 0
KLO1 141632Z 19009KT 21/13 A3003 RMK A01 T02100128  RH  060%=      5-min Rain = 0
KLO1 141633Z 20008KT 21/13 A3003 RMK A01 T02100128  RH  060%=      5-min Rain = 0
KLO1 141634Z 20009KT 21/13 A3004 RMK A01 T02110129  RH  059%=      5-min Rain = 0
KLO1 141635Z 20009KT 21/13 A3004 RMK A01 T02120128  RH  059%=      5-min Rain = 0
KLO1 141636Z 19011KT 21/13 A3004 RMK A01 T02120128  RH  059%=      5-min Rain = 0
KLO1 141637Z 20009KT 21/13 A3004 RMK A01 T02120129  RH  059%=      5-min Rain = 0
KLO1 141638Z 20009KT 21/13 A3004 RMK A01 T02120129  RH  059%=      5-min Rain = 0
KLO1 141639Z 21009KT 21/13 A3004 RMK A01 T02130130  RH  059%=      5-min Rain = 0
KLO1 141640Z 22010KT 21/13 A3004 RMK A01 T02130130  RH  059%=      5-min Rain = 0
KLO1 141641Z 21012KT 21/13 A3004 RMK A01 T02140131  RH  059%=      5-min Rain = 0
KLO1 141642Z 21010KT 21/13 A3004 RMK A01 T02130131  RH  059%=      5-min Rain = 0
KLO1 141643Z 20007KT 21/13 A3004 RMK A01 T02130131  RH  059%=      5-min Rain = 0
KLO1 141644Z 21009KT 21/13 A3004 RMK A01 T02130132  RH  060%=      5-min Rain = 0
KLO1 141645Z 20009KT 21/13 A3004 RMK A01 T02140132  RH  059%=      5-min Rain = 0
KLO1 141646Z 21010KT 21/13 A3004 RMK A01 T02140132  RH  059%=      5-min Rain = 0
KLO1 141647Z 21010KT 21/13 A3004 RMK A01 T02130132  RH  060%=      5-min Rain = 0
KLO1 141648Z 21009KT 21/13 A3004 RMK A01 T02130132  RH  060%=      5-min Rain = 0
KLO1 141649Z 21007KT 21/13 A3004 RMK A01 T02130133  RH  060%=      5-min Rain = 0
KLO1 141650Z 20009KT 21/13 A3004 RMK A01 T02140133  RH  060%=      5-min Rain = 0
KLO1 141651Z 20007KT 22/13 A3004 RMK A01 T02150133  RH  060%=      5-min Rain = 0
KLO1 141652Z 21008KT 22/13 A3004 RMK A01 T02150133  RH  060%=      5-min Rain = 0
KLO1 141653Z 20009KT 22/13 A3004 RMK A01 T02160134  RH  059%=      5-min Rain = 0
KLO1 141654Z 21009KT 22/13 A3004 RMK A01 T02160134  RH  060%=      5-min Rain = 0
KLO1 141655Z 21009KT 22/13 A3003 RMK A01 T02160134  RH  060%=      5-min Rain = 0
KLO1 141656Z 21010KT 22/14 A3003 RMK A01 T02160135  RH  060%=      5-min Rain = 0
KLO1 141657Z 21009KT 22/14 A3003 RMK A01 T02160135  RH  060%=      5-min Rain = 0
KLO1 141658Z 21009KT 22/14 A3003 RMK A01 T02170136  RH  060%=      5-min Rain = 0
KLO1 141659Z 21008KT 22/14 A3003 RMK A01 T02170135  RH  060%=      5-min Rain = 0
KLO1 141700Z 22009KT 22/14 A3003 RMK A01 T02170135  RH  060%=      5-min Rain = 0
KLO1 141701Z 22007KT 22/14 A3003 RMK A01 T02170135  RH  060%=      5-min Rain = 0
KLO1 141702Z 22009KT 22/14 A3003 RMK A01 T02160135  RH  060%=      5-min Rain = 0
KLO1 141703Z 22008KT 22/14 A3003 RMK A01 T02160136  RH  060%=      5-min Rain = 0
KLO1 141704Z 20007KT 22/14 A3003 RMK A01 T02160136  RH  060%=      5-min Rain = 0
KLO1 141705Z 22007KT 22/14 A3003 RMK A01 T02170136  RH  060%=      5-min Rain = 0
KLO1 141706Z 22010KT 22/14 A3003 RMK A01 T02180136  RH  060%=      5-min Rain = 0
KLO1 141707Z 21011KT 22/14 A3003 RMK A01 T02180137  RH  060%=      5-min Rain = 0
KLO1 141708Z 21010KT 22/14 A3003 RMK A01 T02180137  RH  060%=      5-min Rain = 0
KLO1 141709Z 21012KT 22/14 A3003 RMK A01 T02180137  RH  060%=      5-min Rain = 0
KLO1 141710Z 22011KT 22/14 A3003 RMK A01 T02180137  RH  060%=      5-min Rain = 0
KLO1 141711Z 21010KT 22/14 A3003 RMK A01 T02180138  RH  060%=      5-min Rain = 0
KLO1 141712Z 21011KT 22/14 A3003 RMK A01 T02180138  RH  060%=      5-min Rain = 0
KLO1 141713Z 23008KT 22/14 A3003 RMK A01 T02190138  RH  060%=      5-min Rain = 0
KLO1 141714Z 22009KT 22/14 A3003 RMK A01 T02200139  RH  060%=      5-min Rain = 0
KLO1 141715Z 22010KT 22/14 A3003 RMK A01 T02200138  RH  060%=      5-min Rain = 0
KLO1 141716Z 21014KT 22/14 A3003 RMK A01 T02210139  RH  059%=      5-min Rain = 0
KLO1 141717Z 21012KT 22/14 A3003 RMK A01 T02210138  RH  059%=      5-min Rain = 0
KLO1 141718Z 20010KT 22/14 A3003 RMK A01 T02200139  RH  060%=      5-min Rain = 0
KLO1 141719Z 22013KT 22/14 A3003 RMK A01 T02210139  RH  059%=      5-min Rain = 0
KLO1 141720Z 23011KT 22/14 A3003 RMK A01 T02220138  RH  059%=      5-min Rain = 0
KLO1 141721Z 23010KT 22/14 A3003 RMK A01 T02220138  RH  059%=      5-min Rain = 0
KLO1 141722Z 22010KT 22/14 A3003 RMK A01 T02230139  RH  059%=      5-min Rain = 0
KLO1 141723Z 23011KT 22/14 A3003 RMK A01 T02230137  RH  058%=      5-min Rain = 0
KLO1 141724Z 22012KT 22/14 A3003 RMK A01 T02210138  RH  059%=      5-min Rain = 0
KLO1 141725Z 22010KT 22/14 A3003 RMK A01 T02220138  RH  059%=      5-min Rain = 0
KLO1 141726Z 22010KT 22/14 A3003 RMK A01 T02220138  RH  059%=      5-min Rain = 0
KLO1 141727Z 23010KT 22/14 A3003 RMK A01 T02220138  RH  059%=      5-min Rain = 0
KLO1 141728Z 22010KT 22/14 A3003 RMK A01 T02220138  RH  059%=      5-min Rain = 0
KLO1 141729Z 22009KT 22/14 A3003 RMK A01 T02220138  RH  059%=      5-min Rain = 0
KLO1 141730Z 21009KT 22/14 A3003 RMK A01 T02210138  RH  059%=      5-min Rain = 0
KLO1 141731Z 22009KT 22/14 A3003 RMK A01 T02210137  RH  059%=      5-min Rain = 0
KLO1 141732Z 23008KT 22/14 A3003 RMK A01 T02210138  RH  059%=      5-min Rain = 0
KLO1 141733Z 22010KT 22/14 A3003 RMK A01 T02210138  RH  059%=      5-min Rain = 0
KLO1 141734Z 23010KT 22/14 A3003 RMK A01 T02210138  RH  059%=      5-min Rain = 0
KLO1 141735Z 24008G13KT 22/14 A3003 RMK A01 T02210139  RH  060%=      5-min Rain = 0
KLO1 141736Z 23011KT 22/14 A3003 RMK A01 T02230140  RH  060%=      5-min Rain = 0
KLO1 141737Z 22011KT 22/14 A3003 RMK A01 T02240140  RH  059%=      5-min Rain = 0
KLO1 141738Z 22012KT 22/14 A3003 RMK A01 T02240140  RH  059%=      5-min Rain = 0
KLO1 141739Z 22012KT 22/14 A3003 RMK A01 T02220139  RH  059%=      5-min Rain = 0
KLO1 141740Z 23012KT 22/14 A3003 RMK A01 T02210139  RH  060%=      5-min Rain = 0
KLO1 141741Z 23010KT 22/14 A3003 RMK A01 T02210139  RH  060%=      5-min Rain = 0
KLO1 141742Z 23009KT 22/14 A3003 RMK A01 T02220140  RH  060%=      5-min Rain = 0
KLO1 141743Z 22010KT 22/14 A3003 RMK A01 T02240141  RH  059%=      5-min Rain = 0
KLO1 141744Z 22012KT 23/14 A3003 RMK A01 T02250140  RH  059%=      5-min Rain = 0
KLO1 141745Z 23010KT 23/14 A3003 RMK A01 T02250140  RH  059%=      5-min Rain = 0
KLO1 141746Z 22009KT 23/14 A3003 RMK A01 T02250141  RH  059%=      5-min Rain = 0
KLO1 141747Z 23011KT 23/14 A3003 RMK A01 T02260141  RH  059%=      5-min Rain = 0
KLO1 141748Z 21012G17KT 23/14 A3003 RMK A01 T02270141  RH  059%=      5-min Rain = 0
KLO1 141749Z 22012KT 23/14 A3003 RMK A01 T02270141  RH  058%=      5-min Rain = 0
KLO1 141750Z 23012KT 23/14 A3002 RMK A01 T02260141  RH  059%=      5-min Rain = 0
KLO1 141751Z 23013KT 23/14 A3002 RMK A01 T02250141  RH  059%=      5-min Rain = 0
KLO1 141752Z 22013KT 23/14 A3002 RMK A01 T02260141  RH  059%=      5-min Rain = 0
KLO1 141753Z 21014KT 23/14 A3002 RMK A01 T02250141  RH  059%=      5-min Rain = 0
KLO1 141754Z 21012KT 23/14 A3002 RMK A01 T02250141  RH  059%=      5-min Rain = 0
KLO1 141755Z 21011KT 23/14 A3002 RMK A01 T02250141  RH  059%=      5-min Rain = 0
KLO1 141756Z 22009KT 23/14 A3002 RMK A01 T02250141  RH  059%=      5-min Rain = 0
KLO1 141757Z 22011KT 23/14 A3002 RMK A01 T02260142  RH  059%=      5-min Rain = 0
KLO1 141758Z 22014KT 23/14 A3002 RMK A01 T02270142  RH  058%=      5-min Rain = 0
KLO1 141759Z 21011KT 23/14 A3002 RMK A01 T02270142  RH  058%=      5-min Rain = 0
KLO1 141800Z 21013KT 23/14 A3001 RMK A01 T02270142  RH  059%=      5-min Rain = 0
KLO1 141801Z 21011KT 23/14 A3002 RMK A01 T02270142  RH  059%=      5-min Rain = 0
KLO1 141802Z 22013KT 23/14 A3002 RMK A01 T02270142  RH  059%=      5-min Rain = 0
KLO1 141803Z 21013KT 23/14 A3001 RMK A01 T02270142  RH  059%=      5-min Rain = 0
KLO1 141804Z 21011KT 23/14 A3001 RMK A01 T02270143  RH  059%=      5-min Rain = 0
KLO1 141805Z 22013KT 23/14 A3001 RMK A01 T02270143  RH  059%=      5-min Rain = 0
KLO1 141806Z 21014KT 23/14 A3001 RMK A01 T02270144  RH  059%=      5-min Rain = 0
KLO1 141807Z 22013KT 23/14 A3001 RMK A01 T02270144  RH  059%=      5-min Rain = 0
KLO1 141808Z 22011KT 23/15 A3001 RMK A01 T02270145  RH  060%=      5-min Rain = 0
KLO1 141809Z 22012KT 23/14 A3001 RMK A01 T02280144  RH  059%=      5-min Rain = 0
KLO1 141810Z 22012KT 23/14 A3001 RMK A01 T02280144  RH  059%=      5-min Rain = 0
KLO1 141811Z 23011KT 23/15 A3001 RMK A01 T02270145  RH  059%=      5-min Rain = 0
KLO1 141812Z 21013KT 23/15 A3001 RMK A01 T02290145  RH  059%=      5-min Rain = 0
KLO1 141813Z 21014KT 23/15 A3001 RMK A01 T02290145  RH  059%=      5-min Rain = 0
KLO1 141814Z 21013KT 23/15 A3001 RMK A01 T02290146  RH  059%=      5-min Rain = 0
KLO1 141815Z 21012KT 23/15 A3001 RMK A01 T02290146  RH  060%=      5-min Rain = 0
KLO1 141816Z 21013KT 23/15 A3001 RMK A01 T02310148  RH  059%=      5-min Rain = 0
KLO1 141817Z 22012KT 23/15 A3001 RMK A01 T02320147  RH  059%=      5-min Rain = 0
KLO1 141818Z 22012KT 23/15 A3001 RMK A01 T02320148  RH  059%=      5-min Rain = 0
KLO1 141819Z 20011KT 23/15 A3001 RMK A01 T02320147  RH  059%=      5-min Rain = 0
KLO1 141820Z 21012KT 23/15 A3001 RMK A01 T02320147  RH  059%=      5-min Rain = 0
KLO1 141821Z 21011KT 23/15 A3001 RMK A01 T02320147  RH  059%=      5-min Rain = 0
KLO1 141822Z 20012KT 23/15 A30 RMK A01 T02320147  RH  059%=      5-min Rain = 0
KLO1 141823Z 20013KT 23/15 A30 RMK A01 T02320147  RH  059%=      5-min Rain = 0
KLO1 141824Z 20011KT 23/15 A30 RMK A01 T02320146  RH  059%=      5-min Rain = 0
KLO1 141825Z 21012KT 23/15 A30 RMK A01 T02310146  RH  059%=      5-min Rain = 0
KLO1 141826Z 21012KT 23/15 A30 RMK A01 T02320147  RH  059%=      5-min Rain = 0
KLO1 141827Z 21013KT 23/15 A30 RMK A01 T02310146  RH  059%=      5-min Rain = 0
KLO1 141828Z 21011KT 23/15 A30 RMK A01 T02310146  RH  059%=      5-min Rain = 0
KLO1 141829Z 21011KT 23/15 A30 RMK A01 T02320147  RH  059%=      5-min Rain = 0
KLO1 141830Z 21012KT 23/15 A30 RMK A01 T02320147  RH  059%=      5-min Rain = 0
KLO1 141831Z 21011KT 23/15 A30 RMK A01 T02320147  RH  059%=      5-min Rain = 0
KLO1 141832Z 20010KT 23/15 A30 RMK A01 T02320148  RH  059%=      5-min Rain = 0
KLO1 141833Z 20012KT 23/15 A30 RMK A01 T02330147  RH  059%=      5-min Rain = 0
KLO1 141834Z 20013KT 23/15 A30 RMK A01 T02330147  RH  059%=      5-min Rain = 0
KLO1 141835Z 20012KT 23/15 A30 RMK A01 T02320147  RH  059%=      5-min Rain = 0
KLO1 141836Z 21011KT 23/15 A30 RMK A01 T02320148  RH  059%=      5-min Rain = 0
KLO1 141837Z 20011KT 23/15 A30 RMK A01 T02320147  RH  059%=      5-min Rain = 0
KLO1 141838Z 21010KT 23/15 A30 RMK A01 T02320148  RH  059%=      5-min Rain = 0
KLO1 141839Z 22010KT 23/15 A30 RMK A01 T02330148  RH  059%=      5-min Rain = 0
KLO1 141840Z 21011KT 23/15 A30 RMK A01 T02330148  RH  059%=      5-min Rain = 0
KLO1 141841Z 22010KT 23/15 A30 RMK A01 T02340148  RH  059%=      5-min Rain = 0
KLO1 141842Z 20011KT 23/15 A2999 RMK A01 T02340148  RH  058%=      5-min Rain = 0
KLO1 141843Z 22010KT 23/15 A2999 RMK A01 T02340148  RH  058%=      5-min Rain = 0
KLO1 141844Z 22010KT 23/15 A2999 RMK A01 T02340148  RH  058%=      5-min Rain = 0
KLO1 141845Z 22010KT 23/15 A2999 RMK A01 T02340149  RH  059%=      5-min Rain = 0
KLO1 141846Z 22010KT 23/15 A2999 RMK A01 T02340149  RH  059%=      5-min Rain = 0
KLO1 141847Z 22009KT 23/15 A2999 RMK A01 T02340149  RH  059%=      5-min Rain = 0
KLO1 141848Z 22009KT 23/15 A2999 RMK A01 T02340150  RH  059%=      5-min Rain = 0
KLO1 141849Z 20009KT 24/15 A2999 RMK A01 T02350150  RH  059%=      5-min Rain = 0
KLO1 141850Z 21009KT 24/15 A2999 RMK A01 T02360152  RH  059%=      5-min Rain = 0
KLO1 141851Z 22009KT 24/15 A2999 RMK A01 T02360151  RH  059%=      5-min Rain = 0
KLO1 141852Z 22009KT 24/15 A2999 RMK A01 T02360151  RH  059%=      5-min Rain = 0
KLO1 141853Z 22009KT 24/15 A2999 RMK A01 T02360151  RH  059%=      5-min Rain = 0
KLO1 141854Z 21009KT 24/15 A2999 RMK A01 T02360151  RH  059%=      5-min Rain = 0
KLO1 141855Z 22009KT 24/15 A2999 RMK A01 T02360152  RH  059%=      5-min Rain = 0
KLO1 141856Z 22011KT 24/15 A2999 RMK A01 T02370152  RH  059%=      5-min Rain = 0
KLO1 141857Z 22012KT 24/15 A2999 RMK A01 T02370151  RH  059%=      5-min Rain = 0
KLO1 141858Z 22012KT 24/15 A2999 RMK A01 T02360151  RH  059%=      5-min Rain = 0
KLO1 141859Z 21011KT 24/15 A2999 RMK A01 T02360150  RH  058%=      5-min Rain = 0
KLO1 141900Z 21011KT 24/15 A2999 RMK A01 T02360151  RH  059%=      5-min Rain = 0
KLO1 141901Z 21010KT 24/15 A2999 RMK A01 T02370151  RH  059%=      5-min Rain = 0
KLO1 141902Z 21011KT 24/15 A2999 RMK A01 T02380150  RH  058%=      5-min Rain = 0
KLO1 141903Z 22010KT 24/15 A2999 RMK A01 T02380150  RH  058%=      5-min Rain = 0
KLO1 141904Z 21010KT 24/15 A2999 RMK A01 T02390151  RH  058%=      5-min Rain = 0
KLO1 141905Z 21010KT 24/15 A2999 RMK A01 T02390151  RH  058%=      5-min Rain = 0
KLO1 141906Z 21009KT 24/15 A2999 RMK A01 T02410152  RH  058%=      5-min Rain = 0
KLO1 141907Z 20010KT 24/15 A2998 RMK A01 T02410152  RH  057%=      5-min Rain = 0
KLO1 141908Z 20010KT 24/15 A2998 RMK A01 T02420152  RH  057%=      5-min Rain = 0
KLO1 141909Z 20011KT 24/15 A2998 RMK A01 T02420152  RH  057%=      5-min Rain = 0
KLO1 141910Z 20009KT 24/15 A2998 RMK A01 T02420152  RH  057%=      5-min Rain = 0
KLO1 141911Z 21011KT 24/15 A2998 RMK A01 T02420152  RH  057%=      5-min Rain = 0
KLO1 141912Z 19012KT 24/15 A2998 RMK A01 T02420151  RH  057%=      5-min Rain = 0
KLO1 141913Z 20011KT 24/15 A2998 RMK A01 T02430151  RH  057%=      5-min Rain = 0
KLO1 141914Z 21010KT 24/15 A2998 RMK A01 T02430152  RH  057%=      5-min Rain = 0
KLO1 141915Z 21011KT 24/15 A2997 RMK A01 T02440152  RH  056%=      5-min Rain = 0
KLO1 141916Z 21009KT 24/15 A2997 RMK A01 T02440151  RH  056%=      5-min Rain = 0
KLO1 141917Z 19009KT 25/15 A2997 RMK A01 T02450152  RH  056%=      5-min Rain = 0
KLO1 141918Z 19011KT 25/15 A2997 RMK A01 T02480153  RH  055%=      5-min Rain = 0
KLO1 141919Z 19012KT 25/15 A2997 RMK A01 T02490150  RH  054%=      5-min Rain = 0
KLO1 141920Z 19013KT 25/15 A2997 RMK A01 T02470150  RH  055%=      5-min Rain = 0
KLO1 141921Z 19011KT 25/15 A2997 RMK A01 T02470151  RH  055%=      5-min Rain = 0
KLO1 141922Z 20012KT 25/15 A2997 RMK A01 T02470150  RH  055%=      5-min Rain = 0
KLO1 141923Z 21012KT 25/15 A2997 RMK A01 T02450151  RH  056%=      5-min Rain = 0
KLO1 141924Z 20012KT 25/15 A2997 RMK A01 T02450152  RH  056%=      5-min Rain = 0
KLO1 141925Z 20012KT 24/15 A2997 RMK A01 T02430151  RH  056%=      5-min Rain = 0
KLO1 141926Z 20012KT 24/15 A2997 RMK A01 T02430152  RH  057%=      5-min Rain = 0
KLO1 141927Z 19010KT 25/15 A2997 RMK A01 T02450153  RH  057%=      5-min Rain = 0
KLO1 141928Z 22011G16KT 25/15 A2997 RMK A01 T02470154  RH  056%=      5-min Rain = 0
KLO1 141929Z 20012KT 25/16 A2997 RMK A01 T02510155  RH  055%=      5-min Rain = 0
KLO1 141930Z 22011KT 25/15 A2997 RMK A01 T02520154  RH  055%=      5-min Rain = 0
KLO1 141931Z 22012G17KT 25/15 A2997 RMK A01 T02510154  RH  055%=      5-min Rain = 0
KLO1 141932Z 20012KT 25/15 A2997 RMK A01 T02530154  RH  054%=      5-min Rain = 0
KLO1 141933Z 19012KT 25/15 A2997 RMK A01 T02530153  RH  054%=      5-min Rain = 0
KLO1 141934Z 19012KT 25/15 A2997 RMK A01 T02540153  RH  053%=      5-min Rain = 0
KLO1 141935Z 20013KT 25/15 A2997 RMK A01 T02540152  RH  053%=      5-min Rain = 0
KLO1 141936Z 20012KT 25/15 A2997 RMK A01 T02540152  RH  053%=      5-min Rain = 0
KLO1 141937Z 21009KT 26/15 A2997 RMK A01 T02550154  RH  053%=      5-min Rain = 0
KLO1 141938Z 20010KT 26/15 A2996 RMK A01 T02590154  RH  052%=      5-min Rain = 0
KLO1 141939Z 22014KT 26/15 A2996 RMK A01 T02610152  RH  051%=      5-min Rain = 0
KLO1 141940Z 20015KT 26/15 A2996 RMK A01 T02600152  RH  051%=      5-min Rain = 0
KLO1 141941Z 21015KT 26/15 A2996 RMK A01 T02570151  RH  052%=      5-min Rain = 0
KLO1 141942Z 22013KT 26/15 A2997 RMK A01 T02550150  RH  052%=      5-min Rain = 0
KLO1 141943Z 22013G18KT 25/15 A2996 RMK A01 T02540150  RH  052%=      5-min Rain = 0
KLO1 141944Z 22013KT 26/15 A2996 RMK A01 T02550150  RH  052%=      5-min Rain = 0
KLO1 141945Z 21011KT 26/15 A2996 RMK A01 T02550150  RH  052%=      5-min Rain = 0
KLO1 141946Z 20013KT 25/15 A2996 RMK A01 T02540150  RH  053%=      5-min Rain = 0
KLO1 141947Z 20010KT 25/15 A2996 RMK A01 T02540150  RH  053%=      5-min Rain = 0
KLO1 141948Z 19010KT 26/15 A2996 RMK A01 T02550152  RH  053%=      5-min Rain = 0
KLO1 141949Z 20011KT 26/15 A2996 RMK A01 T02580151  RH  052%=      5-min Rain = 0
KLO1 141950Z 19012KT 26/15 A2996 RMK A01 T02580151  RH  052%=      5-min Rain = 0
KLO1 141951Z 20014KT 26/15 A2996 RMK A01 T02560149  RH  052%=      5-min Rain = 0
KLO1 141952Z 19012KT 25/15 A2996 RMK A01 T02540149  RH  052%=      5-min Rain = 0
KLO1 141953Z 19014KT 25/15 A2995 RMK A01 T02530149  RH  053%=      5-min Rain = 0
KLO1 141954Z 19011KT 25/15 A2995 RMK A01 T02510148  RH  053%=      5-min Rain = 0
KLO1 141955Z 20010KT 25/15 A2995 RMK A01 T02500149  RH  053%=      5-min Rain = 0
KLO1 141956Z 21011KT 25/15 A2995 RMK A01 T02490149  RH  054%=      5-min Rain = 0
KLO1 141957Z 20012KT 25/15 A2995 RMK A01 T02490149  RH  054%=      5-min Rain = 0
KLO1 141958Z 19009KT 25/15 A2995 RMK A01 T02490149  RH  054%=      5-min Rain = 0
KLO1 141959Z 19012KT 25/15 A2995 RMK A01 T02500149  RH  053%=      5-min Rain = 0
KLO1 142000Z 21013KT 25/15 A2995 RMK A01 T02500149  RH  053%=      5-min Rain = 0
KLO1 142001Z 21010KT 25/15 A2995 RMK A01 T02480148  RH  054%=      5-min Rain = 0
KLO1 142002Z 21008KT 25/15 A2995 RMK A01 T02470148  RH  054%=      5-min Rain = 0
KLO1 142003Z 20010KT 25/15 A2995 RMK A01 T02470148  RH  054%=      5-min Rain = 0
KLO1 142004Z 21012KT 25/15 A2995 RMK A01 T02470146  RH  053%=      5-min Rain = 0
KLO1 142005Z 20010KT 25/15 A2995 RMK A01 T02470146  RH  053%=      5-min Rain = 0
KLO1 142006Z 19009KT 25/15 A2994 RMK A01 T02470146  RH  053%=      5-min Rain = 0
KLO1 142007Z 20009KT 25/15 A2994 RMK A01 T02470146  RH  053%=      5-min Rain = 0
KLO1 142008Z 20010KT 25/15 A2994 RMK A01 T02470147  RH  054%=      5-min Rain = 0
KLO1 142009Z 21008KT 25/15 A2994 RMK A01 T02470147  RH  054%=      5-min Rain = 0
KLO1 142010Z 20007KT 25/15 A2994 RMK A01 T02460147  RH  054%=      5-min Rain = 0
KLO1 142011Z 20008KT 25/15 A2994 RMK A01 T02460147  RH  054%=      5-min Rain = 0
KLO1 142012Z 21008KT 25/15 A2994 RMK A01 T02470148  RH  054%=      5-min Rain = 0
KLO1 142013Z 21010KT 25/15 A2994 RMK A01 T02490148  RH  053%=      5-min Rain = 0
KLO1 142014Z 20010KT 25/15 A2994 RMK A01 T02510146  RH  052%=      5-min Rain = 0
KLO1 142015Z 20008KT 25/15 A2994 RMK A01 T02510146  RH  052%=      5-min Rain = 0
KLO1 142016Z 20007KT 25/15 A2994 RMK A01 T02510147  RH  052%=      5-min Rain = 0
KLO1 142017Z 19007KT 25/15 A2994 RMK A01 T02500146  RH  052%=      5-min Rain = 0
KLO1 142018Z 19011KT 25/15 A2994 RMK A01 T02500147  RH  053%=      5-min Rain = 0
KLO1 142019Z 20009KT 25/15 A2994 RMK A01 T02520147  RH  052%=      5-min Rain = 0
KLO1 142020Z 20008KT 25/15 A2994 RMK A01 T02540148  RH  052%=      5-min Rain = 0
KLO1 142021Z 18009KT 26/15 A2994 RMK A01 T02550147  RH  051%=      5-min Rain = 0
KLO1 142022Z 18007KT 25/15 A2994 RMK A01 T02540146  RH  051%=      5-min Rain = 0
KLO1 142023Z 19011KT 25/15 A2994 RMK A01 T02540147  RH  052%=      5-min Rain = 0
KLO1 142024Z 19012KT 25/15 A2994 RMK A01 T02540147  RH  051%=      5-min Rain = 0
KLO1 142025Z 18013KT 25/15 A2994 RMK A01 T02540147  RH  051%=      5-min Rain = 0
KLO1 142026Z 19009KT 25/15 A2994 RMK A01 T02540147  RH  051%=      5-min Rain = 0
KLO1 142027Z 21012KT 26/15 A2993 RMK A01 T02550147  RH  051%=      5-min Rain = 0
KLO1 142028Z 20011KT 26/15 A2994 RMK A01 T02560146  RH  051%=      5-min Rain = 0
KLO1 142029Z 20010KT 26/15 A2994 RMK A01 T02550146  RH  051%=      5-min Rain = 0
KLO1 142030Z 20012KT 26/15 A2994 RMK A01 T02550146  RH  051%=      5-min Rain = 0
KLO1 142031Z 21011KT 26/15 A2994 RMK A01 T02550145  RH  051%=      5-min Rain = 0
KLO1 142032Z 21008KT 25/15 A2994 RMK A01 T02540146  RH  051%=      5-min Rain = 0
KLO1 142033Z 20010KT 25/15 A2993 RMK A01 T02540146  RH  051%=      5-min Rain = 0
KLO1 142034Z 18010KT 25/15 A2993 RMK A01 T02540146  RH  051%=      5-min Rain = 0
KLO1 142035Z 19011KT 26/15 A2993 RMK A01 T02560148  RH  051%=      5-min Rain = 0
KLO1 142036Z 20012KT 26/15 A2993 RMK A01 T02570148  RH  051%=      5-min Rain = 0
KLO1 142037Z 19012KT 26/15 A2993 RMK A01 T02570147  RH  051%=      5-min Rain = 0
KLO1 142038Z 19012KT 26/15 A2993 RMK A01 T02560146  RH  051%=      5-min Rain = 0
KLO1 142039Z 18011KT 26/15 A2993 RMK A01 T02550146  RH  051%=      5-min Rain = 0
KLO1 142040Z 20007KT 25/15 A2993 RMK A01 T02540146  RH  051%=      5-min Rain = 0
KLO1 142041Z 20010G16KT 26/15 A2993 RMK A01 T02550147  RH  051%=      5-min Rain = 0
KLO1 142042Z 19013KT 26/15 A2993 RMK A01 T02570148  RH  051%=      5-min Rain = 0
KLO1 142043Z 19010KT 26/15 A2993 RMK A01 T02560147  RH  051%=      5-min Rain = 0
KLO1 142044Z 20011KT 26/15 A2993 RMK A01 T02560148  RH  051%=      5-min Rain = 0
KLO1 142045Z 20012KT 26/15 A2993 RMK A01 T02580148  RH  051%=      5-min Rain = 0
KLO1 142046Z 20012KT 26/15 A2993 RMK A01 T02580146  RH  050%=      5-min Rain = 0
KLO1 142047Z 21010KT 26/15 A2993 RMK A01 T02560146  RH  051%=      5-min Rain = 0
KLO1 142048Z 20011KT 26/15 A2993 RMK A01 T02550147  RH  051%=      5-min Rain = 0
KLO1 142049Z 19008KT 26/15 A2993 RMK A01 T02550149  RH  052%=      5-min Rain = 0
KLO1 142050Z 19007G12KT 26/15 A2993 RMK A01 T02580150  RH  051%=      5-min Rain = 0
KLO1 142051Z 18011KT 26/15 A2993 RMK A01 T02590150  RH  051%=      5-min Rain = 0
KLO1 142052Z 19011KT 26/15 A2993 RMK A01 T02590149  RH  051%=      5-min Rain = 0
KLO1 142053Z 19008G14KT 26/15 A2993 RMK A01 T02590150  RH  051%=      5-min Rain = 0
KLO1 142054Z 19013KT 26/15 A2993 RMK A01 T02580150  RH  051%=      5-min Rain = 0
KLO1 142055Z 21011KT 26/15 A2993 RMK A01 T02580149  RH  051%=      5-min Rain = 0
KLO1 142056Z 20010KT 26/15 A2993 RMK A01 T02580145  RH  050%=      5-min Rain = 0
KLO1 142057Z 21010KT 26/15 A2993 RMK A01 T02570146  RH  050%=      5-min Rain = 0
KLO1 142058Z 19009KT 26/15 A2993 RMK A01 T02570148  RH  051%=      5-min Rain = 0
KLO1 142059Z 20010KT 26/15 A2993 RMK A01 T02570148  RH  051%=      5-min Rain = 0
KLO1 142100Z 19012KT 26/15 A2993 RMK A01 T02580148  RH  051%=      5-min Rain = 0
KLO1 142101Z 18011KT 26/15 A2993 RMK A01 T02580147  RH  050%=      5-min Rain = 0
KLO1 142102Z 19011KT 26/15 A2993 RMK A01 T02580147  RH  050%=      5-min Rain = 0
KLO1 142103Z 21010KT 26/15 A2993 RMK A01 T02580148  RH  050%=      5-min Rain = 0
KLO1 142104Z 21012KT 26/15 A2993 RMK A01 T02600148  RH  050%=      5-min Rain = 0
KLO1 142105Z 22011KT 26/15 A2993 RMK A01 T02600148  RH  050%=      5-min Rain = 0
KLO1 142106Z 21013KT 26/15 A2993 RMK A01 T02590147  RH  050%=      5-min Rain = 0
KLO1 142107Z 20011KT 26/15 A2993 RMK A01 T02590148  RH  051%=      5-min Rain = 0
KLO1 142108Z 20010KT 26/15 A2993 RMK A01 T02580148  RH  051%=      5-min Rain = 0
KLO1 142109Z 19011KT 26/15 A2993 RMK A01 T02570148  RH  051%=      5-min Rain = 0
KLO1 142110Z 19011KT 26/15 A2993 RMK A01 T02580149  RH  051%=      5-min Rain = 0
KLO1 142111Z 19009KT 26/15 A2993 RMK A01 T02590150  RH  051%=      5-min Rain = 0
KLO1 142112Z 20011KT 26/15 A2993 RMK A01 T02620150  RH  050%=      5-min Rain = 0
KLO1 142113Z 19010KT 26/15 A2993 RMK A01 T02620150  RH  050%=      5-min Rain = 0
KLO1 142114Z 19012KT 26/15 A2993 RMK A01 T02620151  RH  050%=      5-min Rain = 0
KLO1 142115Z 18012G17KT 26/15 A2993 RMK A01 T02630151  RH  050%=      5-min Rain = 0
KLO1 142116Z 19013G19KT 26/15 A2993 RMK A01 T02620151  RH  050%=      5-min Rain = 0
KLO1 142117Z 19011G16KT 26/15 A2993 RMK A01 T02610151  RH  051%=      5-min Rain = 0
KLO1 142118Z 19013KT 26/15 A2993 RMK A01 T02620151  RH  050%=      5-min Rain = 0
KLO1 142119Z 19012KT 26/15 A2993 RMK A01 T02610150  RH  051%=      5-min Rain = 0
KLO1 142120Z 19012KT 26/15 A2993 RMK A01 T02590151  RH  051%=      5-min Rain = 0
KLO1 142121Z 16011KT 26/15 A2993 RMK A01 T02590151  RH  051%=      5-min Rain = 0
KLO1 142122Z 18012KT 26/15 A2993 RMK A01 T02590151  RH  051%=      5-min Rain = 0
KLO1 142123Z 19011KT 26/15 A2993 RMK A01 T02590150  RH  051%=      5-min Rain = 0
KLO1 142124Z 19008KT 26/15 A2993 RMK A01 T02600150  RH  051%=      5-min Rain = 0
KLO1 142125Z 22009KT 26/15 A2993 RMK A01 T02600151  RH  051%=      5-min Rain = 0
KLO1 142126Z 20008KT 26/15 A2993 RMK A01 T02600151  RH  051%=      5-min Rain = 0
KLO1 142127Z 20014KT 26/15 A2993 RMK A01 T02600150  RH  051%=      5-min Rain = 0
KLO1 142128Z 21013KT 26/15 A2993 RMK A01 T02590150  RH  051%=      5-min Rain = 0
KLO1 142129Z 21012KT 26/15 A2993 RMK A01 T02580149  RH  051%=      5-min Rain = 0
KLO1 142130Z 21012KT 26/15 A2993 RMK A01 T02570150  RH  052%=      5-min Rain = 0
KLO1 142131Z 20013KT 26/15 A2993 RMK A01 T02580150  RH  051%=      5-min Rain = 0
KLO1 142132Z 19014KT 26/15 A2993 RMK A01 T02590149  RH  051%=      5-min Rain = 0
KLO1 142133Z 20012KT 26/15 A2993 RMK A01 T02590149  RH  051%=      5-min Rain = 0
KLO1 142134Z 20013KT 26/15 A2993 RMK A01 T02600150  RH  051%=      5-min Rain = 0
KLO1 142135Z 20010KT 26/15 A2993 RMK A01 T02610150  RH  051%=      5-min Rain = 0
KLO1 142136Z 20013KT 26/15 A2993 RMK A01 T02610151  RH  051%=      5-min Rain = 0
KLO1 142137Z 21013KT 26/15 A2993 RMK A01 T02610151  RH  051%=      5-min Rain = 0
KLO1 142138Z 21012KT 26/15 A2993 RMK A01 T02600151  RH  051%=      5-min Rain = 0
KLO1 142139Z 20014KT 26/15 A2993 RMK A01 T02600150  RH  051%=      5-min Rain = 0
KLO1 142140Z 20012KT 26/15 A2993 RMK A01 T02600150  RH  051%=      5-min Rain = 0
KLO1 142141Z 20012KT 26/15 A2993 RMK A01 T02580150  RH  051%=      5-min Rain = 0
KLO1 142142Z 19015KT 26/15 A2993 RMK A01 T02580151  RH  052%=      5-min Rain = 0
KLO1 142143Z 19014KT 26/15 A2993 RMK A01 T02550151  RH  052%=      5-min Rain = 0
KLO1 142144Z 19013KT 25/15 A2993 RMK A01 T02530151  RH  053%=      5-min Rain = 0
KLO1 142145Z 19016KT 25/15 A2994 RMK A01 T02530152  RH  053%=      5-min Rain = 0
KLO1 142146Z 19014KT 25/15 A2994 RMK A01 T02520152  RH  054%=      5-min Rain = 0
KLO1 142147Z 19011KT 25/15 A2994 RMK A01 T02500152  RH  054%=      5-min Rain = 0
KLO1 142148Z 19014KT 25/15 A2994 RMK A01 T02500152  RH  054%=      5-min Rain = 0
KLO1 142149Z 19013KT 25/15 A2994 RMK A01 T02500152  RH  054%=      5-min Rain = 0
KLO1 142150Z 19013KT 25/15 A2994 RMK A01 T02500153  RH  055%=      5-min Rain = 0
KLO1 142151Z 19010KT 25/15 A2994 RMK A01 T02510153  RH  055%=      5-min Rain = 0
KLO1 142152Z 20011KT 25/15 A2994 RMK A01 T02510153  RH  054%=      5-min Rain = 0
KLO1 142153Z 19012KT 25/15 A2994 RMK A01 T02510152  RH  054%=      5-min Rain = 0
KLO1 142154Z 20008KT 25/15 A2994 RMK A01 T02500152  RH  054%=      5-min Rain = 0
KLO1 142155Z 20011KT 25/15 A2994 RMK A01 T02520153  RH  054%=      5-min Rain = 0
KLO1 142156Z 19012KT 25/15 A2994 RMK A01 T02540152  RH  053%=      5-min Rain = 0
KLO1 142157Z 19015KT 25/15 A2994 RMK A01 T02530152  RH  053%=      5-min Rain = 0
KLO1 142158Z 18013G18KT 25/15 A2994 RMK A01 T02510152  RH  054%=      5-min Rain = 0
KLO1 142159Z 19013KT 25/15 A2994 RMK A01 T02500152  RH  054%=      5-min Rain = 0
KLO1 142200Z 20011KT 25/15 A2994 RMK A01 T02500152  RH  054%=      5-min Rain = 0
KLO1 142201Z 19014KT 25/15 A2994 RMK A01 T02500152  RH  054%=      5-min Rain = 0
KLO1 142202Z 20013KT 25/15 A2994 RMK A01 T02510152  RH  054%=      5-min Rain = 0
KLO1 142203Z 20013KT 25/15 A2994 RMK A01 T02510152  RH  054%=      5-min Rain = 0
KLO1 142204Z 20010KT 25/15 A2994 RMK A01 T02510152  RH  054%=      5-min Rain = 0
KLO1 142205Z 19011KT 25/15 A2994 RMK A01 T02500152  RH  054%=      5-min Rain = 0
KLO1 142206Z 19014KT 25/15 A2994 RMK A01 T02510151  RH  054%=      5-min Rain = 0
KLO1 142207Z 20012KT 25/15 A2994 RMK A01 T02500151  RH  054%=      5-min Rain = 0
KLO1 142208Z 20013KT 25/15 A2994 RMK A01 T02490151  RH  054%=      5-min Rain = 0
KLO1 142209Z 20014KT 25/15 A2994 RMK A01 T02490151  RH  055%=      5-min Rain = 0
KLO1 142210Z 20014KT 25/15 A2994 RMK A01 T02480151  RH  055%=      5-min Rain = 0
KLO1 142211Z 20011KT 25/15 A2994 RMK A01 T02480152  RH  055%=      5-min Rain = 0
KLO1 142212Z 20012KT 25/15 A2994 RMK A01 T02490152  RH  055%=      5-min Rain = 0
KLO1 142213Z 20012KT 25/15 A2994 RMK A01 T02490151  RH  055%=      5-min Rain = 0
KLO1 142214Z 20010KT 25/15 A2994 RMK A01 T02480152  RH  055%=      5-min Rain = 0
KLO1 142215Z 21011KT 25/15 A2994 RMK A01 T02490152  RH  055%=      5-min Rain = 0
KLO1 142216Z 20012KT 25/15 A2994 RMK A01 T02510152  RH  054%=      5-min Rain = 0
KLO1 142217Z 20012KT 25/15 A2994 RMK A01 T02530153  RH  054%=      5-min Rain = 0
KLO1 142218Z 19012KT 25/15 A2994 RMK A01 T02540152  RH  053%=      5-min Rain = 0
KLO1 142219Z 18011KT 25/15 A2994 RMK A01 T02530152  RH  054%=      5-min Rain = 0
KLO1 142220Z 19009KT 25/15 A2994 RMK A01 T02530152  RH  054%=      5-min Rain = 0
KLO1 142221Z 19009KT 25/15 A2994 RMK A01 T02520152  RH  054%=      5-min Rain = 0
KLO1 142222Z 19011KT 25/15 A2994 RMK A01 T02530153  RH  054%=      5-min Rain = 0
KLO1 142223Z 19009KT 25/15 A2994 RMK A01 T02530152  RH  054%=      5-min Rain = 0
KLO1 142224Z 19011KT 25/15 A2993 RMK A01 T02530152  RH  053%=      5-min Rain = 0
KLO1 142225Z 18011KT 25/15 A2993 RMK A01 T02530152  RH  054%=      5-min Rain = 0
KLO1 142226Z 18011KT 25/15 A2994 RMK A01 T02520152  RH  054%=      5-min Rain = 0
KLO1 142227Z 18010KT 25/15 A2993 RMK A01 T02510152  RH  054%=      5-min Rain = 0
KLO1 142228Z 19010KT 25/15 A2993 RMK A01 T02520153  RH  054%=      5-min Rain = 0
KLO1 142229Z 19010KT 25/15 A2993 RMK A01 T02540153  RH  054%=      5-min Rain = 0
KLO1 142230Z 18014KT 25/15 A2993 RMK A01 T02540153  RH  053%=      5-min Rain = 0
KLO1 142231Z 19014KT 25/15 A2993 RMK A01 T02530153  RH  054%=      5-min Rain = 0
KLO1 142232Z 19013KT 25/15 A2993 RMK A01 T02520153  RH  054%=      5-min Rain = 0
KLO1 142233Z 20013KT 25/15 A2993 RMK A01 T02520153  RH  054%=      5-min Rain = 0
KLO1 142234Z 19012KT 25/15 A2993 RMK A01 T02520153  RH  054%=      5-min Rain = 0
KLO1 142235Z 19012KT 25/15 A2993 RMK A01 T02510153  RH  055%=      5-min Rain = 0
KLO1 142236Z 19014KT 25/15 A2994 RMK A01 T02510153  RH  055%=      5-min Rain = 0
KLO1 142237Z 19014KT 25/15 A2994 RMK A01 T02510153  RH  055%=      5-min Rain = 0
KLO1 142238Z 19013KT 25/15 A2994 RMK A01 T02500153  RH  055%=      5-min Rain = 0
KLO1 142239Z 19010KT 25/15 A2994 RMK A01 T02500153  RH  055%=      5-min Rain = 0
KLO1 142240Z 19012KT 25/15 A2994 RMK A01 T02500153  RH  055%=      5-min Rain = 0
KLO1 142241Z 20012KT 25/15 A2994 RMK A01 T02520153  RH  054%=      5-min Rain = 0
KLO1 142242Z 20008KT 25/15 A2994 RMK A01 T02520153  RH  054%=      5-min Rain = 0
KLO1 142243Z 19009KT 25/15 A2994 RMK A01 T02520153  RH  054%=      5-min Rain = 0
KLO1 142244Z 19009G14KT 25/15 A2994 RMK A01 T02530154  RH  054%=      5-min Rain = 0
KLO1 142245Z 20011KT 25/15 A2994 RMK A01 T02530153  RH  054%=      5-min Rain = 0
KLO1 142246Z 20014KT 25/15 A2994 RMK A01 T02530153  RH  054%=      5-min Rain = 0
KLO1 142247Z 20014KT 25/15 A2994 RMK A01 T02520152  RH  054%=      5-min Rain = 0
KLO1 142248Z 21013G18KT 25/15 A2994 RMK A01 T02520152  RH  054%=      5-min Rain = 0
KLO1 142249Z 20012KT 25/15 A2994 RMK A01 T02510152  RH  054%=      5-min Rain = 0
KLO1 142250Z 21010KT 25/15 A2994 RMK A01 T02510152  RH  054%=      5-min Rain = 0
KLO1 142251Z 19012KT 25/15 A2994 RMK A01 T02520152  RH  054%=      5-min Rain = 0
KLO1 142252Z 20013KT 25/15 A2994 RMK A01 T02520151  RH  054%=      5-min Rain = 0
KLO1 142253Z 20012KT 25/15 A2994 RMK A01 T02510151  RH  054%=      5-min Rain = 0
KLO1 142254Z 20012KT 25/15 A2994 RMK A01 T02500151  RH  054%=      5-min Rain = 0
KLO1 142255Z 20011KT 25/15 A2994 RMK A01 T02500151  RH  054%=      5-min Rain = 0
KLO1 142256Z 19013KT 25/15 A2994 RMK A01 T02500151  RH  054%=      5-min Rain = 0
KLO1 142257Z 19009KT 25/15 A2994 RMK A01 T02500151  RH  054%=      5-min Rain = 0
KLO1 142258Z 19011KT 25/15 A2994 RMK A01 T02510151  RH  054%=      5-min Rain = 0
KLO1 142259Z 19012KT 25/15 A2994 RMK A01 T02510151  RH  054%=      5-min Rain = 0
KLO1 142300Z 19011KT 25/15 A2994 RMK A01 T02510150  RH  054%=      5-min Rain = 0
KLO1 142301Z 19013KT 25/15 A2993 RMK A01 T02500150  RH  054%=      5-min Rain = 0
KLO1 142302Z 18012KT 25/15 A2993 RMK A01 T02500151  RH  054%=      5-min Rain = 0
KLO1 142303Z 20012KT 25/15 A2993 RMK A01 T02500151  RH  054%=      5-min Rain = 0
KLO1 142304Z 19013KT 25/15 A2993 RMK A01 T02500151  RH  054%=      5-min Rain = 0
KLO1 142305Z 21013KT 25/15 A2994 RMK A01 T02500151  RH  054%=      5-min Rain = 0
KLO1 142306Z 21013KT 25/15 A2994 RMK A01 T02500151  RH  054%=      5-min Rain = 0
KLO1 142307Z 21014KT 25/15 A2994 RMK A01 T02510151  RH  054%=      5-min Rain = 0
KLO1 142308Z 21013KT 25/15 A2994 RMK A01 T02510151  RH  054%=      5-min Rain = 0
KLO1 142309Z 21012KT 25/15 A2994 RMK A01 T02500151  RH  054%=      5-min Rain = 0
KLO1 142310Z 20012KT 25/15 A2994 RMK A01 T02500152  RH  054%=      5-min Rain = 0
KLO1 142311Z 20013KT 25/15 A2994 RMK A01 T02500152  RH  054%=      5-min Rain = 0
KLO1 142312Z 20011KT 25/15 A2994 RMK A01 T02480151  RH  055%=      5-min Rain = 0
KLO1 142313Z 19009KT 25/15 A2994 RMK A01 T02480152  RH  055%=      5-min Rain = 0
KLO1 142314Z 20012KT 25/15 A2993 RMK A01 T02480152  RH  055%=      5-min Rain = 0
KLO1 142315Z 20012KT 25/15 A2993 RMK A01 T02470152  RH  055%=      5-min Rain = 0
KLO1 142316Z 20013KT 25/15 A2993 RMK A01 T02470153  RH  056%=      5-min Rain = 0
KLO1 142317Z 21013KT 25/15 A2993 RMK A01 T02470153  RH  056%=      5-min Rain = 0
KLO1 142318Z 21014KT 25/15 A2993 RMK A01 T02470153  RH  056%=      5-min Rain = 0
KLO1 142319Z 20015KT 25/15 A2993 RMK A01 T02470153  RH  056%=      5-min Rain = 0
KLO1 142320Z 20013KT 25/15 A2993 RMK A01 T02470153  RH  056%=      5-min Rain = 0
KLO1 142321Z 20011KT 25/15 A2993 RMK A01 T02470152  RH  056%=      5-min Rain = 0
KLO1 142322Z 20013KT 25/15 A2993 RMK A01 T02470152  RH  056%=      5-min Rain = 0
KLO1 142323Z 20013KT 25/15 A2993 RMK A01 T02470153  RH  056%=      5-min Rain = 0
KLO1 142324Z 21010KT 25/15 A2993 RMK A01 T02470153  RH  056%=      5-min Rain = 0
KLO1 142325Z 21012KT 25/15 A2993 RMK A01 T02470153  RH  056%=      5-min Rain = 0
KLO1 142326Z 21012KT 25/15 A2993 RMK A01 T02470153  RH  056%=      5-min Rain = 0
KLO1 142327Z 20009KT 25/15 A2993 RMK A01 T02470153  RH  056%=      5-min Rain = 0
KLO1 142328Z 19010KT 25/15 A2993 RMK A01 T02470154  RH  056%=      5-min Rain = 0
KLO1 142329Z 20010KT 25/15 A2993 RMK A01 T02470154  RH  056%=      5-min Rain = 0
KLO1 142330Z 20011KT 25/15 A2993 RMK A01 T02470154  RH  056%=      5-min Rain = 0
KLO1 142331Z 21010KT 25/15 A2993 RMK A01 T02460154  RH  056%=      5-min Rain = 0
KLO1 142332Z 20008KT 25/15 A2993 RMK A01 T02460154  RH  056%=      5-min Rain = 0
KLO1 142333Z 19010KT 25/15 A2993 RMK A01 T02460154  RH  056%=      5-min Rain = 0
KLO1 142334Z 20012KT 25/15 A2993 RMK A01 T02470154  RH  056%=      5-min Rain = 0
KLO1 142335Z 20011KT 25/15 A2993 RMK A01 T02460154  RH  056%=      5-min Rain = 0
KLO1 142336Z 19012KT 25/15 A2993 RMK A01 T02470154  RH  056%=      5-min Rain = 0
KLO1 142337Z 20010KT 25/15 A2993 RMK A01 T02460154  RH  056%=      5-min Rain = 0
KLO1 142338Z 20012KT 25/15 A2993 RMK A01 T02470154  RH  056%=      5-min Rain = 0
KLO1 142339Z 20011KT 25/15 A2993 RMK A01 T02460154  RH  056%=      5-min Rain = 0
KLO1 142340Z 19010KT 25/15 A2993 RMK A01 T02460154  RH  056%=      5-min Rain = 0
KLO1 142341Z 20011KT 25/16 A2993 RMK A01 T02470155  RH  057%=      5-min Rain = 0
KLO1 142342Z 20009KT 25/15 A2993 RMK A01 T02470154  RH  057%=      5-min Rain = 0
KLO1 142343Z 20009KT 25/15 A2993 RMK A01 T02470154  RH  057%=      5-min Rain = 0
KLO1 142344Z 20008KT 25/15 A2993 RMK A01 T02460154  RH  056%=      5-min Rain = 0
KLO1 142345Z 20008KT 25/15 A2993 RMK A01 T02470154  RH  056%=      5-min Rain = 0
KLO1 142346Z 19008KT 25/15 A2993 RMK A01 T02470154  RH  056%=      5-min Rain = 0
KLO1 142347Z 19006KT 25/15 A2993 RMK A01 T02460154  RH  056%=      5-min Rain = 0
KLO1 142348Z 20007KT 25/15 A2993 RMK A01 T02470154  RH  056%=      5-min Rain = 0
KLO1 142349Z 20008KT 25/15 A2993 RMK A01 T02470154  RH  056%=      5-min Rain = 0
KLO1 142350Z 19007KT 25/15 A2993 RMK A01 T02470154  RH  056%=      5-min Rain = 0
KLO1 142351Z 20007KT 25/15 A2993 RMK A01 T02470154  RH  056%=      5-min Rain = 0
KLO1 142352Z 20008KT 25/15 A2993 RMK A01 T02470154  RH  056%=      5-min Rain = 0
KLO1 142353Z 19007KT 25/15 A2993 RMK A01 T02470154  RH  056%=      5-min Rain = 0
KLO1 142354Z 20009KT 25/15 A2993 RMK A01 T02470154  RH  056%=      5-min Rain = 0
KLO1 142355Z 20009KT 25/15 A2993 RMK A01 T02470154  RH  056%=      5-min Rain = 0
KLO1 142356Z 19010KT 25/16 A2993 RMK A01 T02470155  RH  057%=      5-min Rain = 0
KLO1 142357Z 19008KT 25/15 A2993 RMK A01 T02460154  RH  057%=      5-min Rain = 0
KLO1 142358Z 20008KT 25/16 A2993 RMK A01 T02460155  RH  057%=      5-min Rain = 0
KLO1 142359Z 19007KT 25/16 A2993 RMK A01 T02460155  RH  057%=      5-min Rain = 0
KLO1 150000Z 18008KT 25/16 A2993 RMK A01 T02450155  RH  057%=      5-min Rain = 0
KLO1 150001Z 19008KT 25/16 A2993 RMK A01 T02450155  RH  057%=      5-min Rain = 0
KLO1 150002Z 18008KT 24/15 A2993 RMK A01 T02440154  RH  057%=      5-min Rain = 0
KLO1 150003Z 18007KT 24/15 A2993 RMK A01 T02440154  RH  057%=      5-min Rain = 0
KLO1 150004Z 19006KT 24/15 A2993 RMK A01 T02440154  RH  057%=      5-min Rain = 0
KLO1 150005Z 19007KT 24/15 A2993 RMK A01 T02440154  RH  057%=      5-min Rain = 0
KLO1 150006Z 19007KT 24/15 A2993 RMK A01 T02430154  RH  058%=      5-min Rain = 0
KLO1 150007Z 19006KT 24/16 A2993 RMK A01 T02430155  RH  058%=      5-min Rain = 0
KLO1 150008Z 19006KT 24/15 A2993 RMK A01 T02430154  RH  058%=      5-min Rain = 0
KLO1 150009Z 19006KT 24/15 A2993 RMK A01 T02420154  RH  058%=      5-min Rain = 0
KLO1 150010Z 18007KT 24/15 A2993 RMK A01 T02420154  RH  058%=      5-min Rain = 0
KLO1 150011Z 19007KT 24/15 A2993 RMK A01 T02410154  RH  058%=      5-min Rain = 0
KLO1 150012Z 18007KT 24/15 A2993 RMK A01 T02410154  RH  058%=      5-min Rain = 0
KLO1 150013Z 18006KT 24/15 A2993 RMK A01 T02410154  RH  058%=      5-min Rain = 0
KLO1 150014Z 18006KT 24/15 A2993 RMK A01 T02400154  RH  058%=      5-min Rain = 0
KLO1 150015Z 18006KT 24/15 A2993 RMK A01 T02400154  RH  059%=      5-min Rain = 0
KLO1 150016Z 18007KT 24/15 A2993 RMK A01 T02400154  RH  059%=      5-min Rain = 0
KLO1 150017Z 18006KT 24/15 A2993 RMK A01 T02390154  RH  059%=      5-min Rain = 0
KLO1 150018Z 18006KT 24/15 A2993 RMK A01 T02390154  RH  059%=      5-min Rain = 0
KLO1 150019Z 18006KT 24/15 A2993 RMK A01 T02390153  RH  059%=      5-min Rain = 0
KLO1 150020Z 18006KT 24/15 A2993 RMK A01 T02390154  RH  059%=      5-min Rain = 0
KLO1 150021Z 18006KT 24/15 A2993 RMK A01 T02380153  RH  059%=      5-min Rain = 0
KLO1 150022Z 18005KT 24/15 A2993 RMK A01 T02380153  RH  059%=      5-min Rain = 0
KLO1 150023Z 17006KT 24/15 A2993 RMK A01 T02370153  RH  059%=      5-min Rain = 0
KLO1 150024Z 17006KT 24/15 A2993 RMK A01 T02370153  RH  059%=      5-min Rain = 0
KLO1 150025Z 17006KT 24/15 A2993 RMK A01 T02360153  RH  060%=      5-min Rain = 0
KLO1 150026Z 17006KT 24/15 A2993 RMK A01 T02360153  RH  060%=      5-min Rain = 0
KLO1 150027Z 17006KT 24/15 A2993 RMK A01 T02360153  RH  060%=      5-min Rain = 0
KLO1 150028Z 17006KT 24/15 A2993 RMK A01 T02350153  RH  060%=      5-min Rain = 0
KLO1 150029Z 17006KT 24/15 A2993 RMK A01 T02350153  RH  060%=      5-min Rain = 0
KLO1 150030Z 17006KT 23/15 A2993 RMK A01 T02340153  RH  060%=      5-min Rain = 0
KLO1 150031Z 17006KT 23/15 A2993 RMK A01 T02340153  RH  061%=      5-min Rain = 0
KLO1 150032Z 17006KT 23/15 A2993 RMK A01 T02330153  RH  061%=      5-min Rain = 0
KLO1 150033Z 17005KT 23/15 A2993 RMK A01 T02320153  RH  061%=      5-min Rain = 0
KLO1 150034Z 17005KT 23/15 A2993 RMK A01 T02320153  RH  061%=      5-min Rain = 0
KLO1 150035Z 18006KT 23/15 A2993 RMK A01 T02310153  RH  061%=      5-min Rain = 0
KLO1 150036Z 18006KT 23/15 A2993 RMK A01 T02310154  RH  062%=      5-min Rain = 0
KLO1 150037Z 18006KT 23/15 A2993 RMK A01 T02310154  RH  062%=      5-min Rain = 0
KLO1 150038Z 17006KT 23/15 A2993 RMK A01 T02310153  RH  062%=      5-min Rain = 0
KLO1 150039Z 18006KT 23/15 A2993 RMK A01 T02310154  RH  062%=      5-min Rain = 0
KLO1 150040Z 17006KT 23/15 A2993 RMK A01 T02310154  RH  062%=      5-min Rain = 0
KLO1 150041Z 17005KT 23/15 A2993 RMK A01 T02300153  RH  062%=      5-min Rain = 0
KLO1 150042Z 17005KT 23/15 A2993 RMK A01 T02300153  RH  062%=      5-min Rain = 0
KLO1 150043Z 17005KT 23/15 A2993 RMK A01 T02290153  RH  062%=      5-min Rain = 0
KLO1 150044Z 17005KT 23/15 A2993 RMK A01 T02290153  RH  062%=      5-min Rain = 0
KLO1 150045Z 17005KT 23/15 A2993 RMK A01 T02280153  RH  063%=      5-min Rain = 0
KLO1 150046Z 17005KT 23/15 A2993 RMK A01 T02270153  RH  063%=      5-min Rain = 0
KLO1 150047Z 17005KT 23/15 A2994 RMK A01 T02270153  RH  063%=      5-min Rain = 0
KLO1 150048Z 17005KT 23/15 A2994 RMK A01 T02260153  RH  063%=      5-min Rain = 0
KLO1 150049Z 18005KT 23/15 A2994 RMK A01 T02250152  RH  063%=      5-min Rain = 0
KLO1 150050Z 18006KT 23/15 A2994 RMK A01 T02250153  RH  064%=      5-min Rain = 0
KLO1 150051Z 17006KT 22/15 A2994 RMK A01 T02240153  RH  064%=      5-min Rain = 0
KLO1 150052Z 17006KT 22/15 A2994 RMK A01 T02240153  RH  064%=      5-min Rain = 0
KLO1 150053Z 17006KT 22/15 A2994 RMK A01 T02240153  RH  064%=      5-min Rain = 0
KLO1 150054Z 17006KT 22/15 A2994 RMK A01 T02240153  RH  064%=      5-min Rain = 0
KLO1 150055Z 17006KT 22/15 A2993 RMK A01 T02240153  RH  064%=      5-min Rain = 0
KLO1 150056Z 17006KT 22/15 A2993 RMK A01 T02240153  RH  064%=      5-min Rain = 0
KLO1 150057Z 18006KT 22/15 A2993 RMK A01 T02240153  RH  064%=      5-min Rain = 0
KLO1 150058Z 18007KT 22/15 A2994 RMK A01 T02230154  RH  065%=      5-min Rain = 0
KLO1 150059Z 18007KT 22/15 A2993 RMK A01 T02230154  RH  065%=      5-min Rain = 0
KLO1 150100Z 18008KT 22/15 A2993 RMK A01 T02240154  RH  065%=      5-min Rain = 0
KLO1 150101Z 17007KT 22/16 A2993 RMK A01 T02240155  RH  065%=      5-min Rain = 0
KLO1 150102Z 17009KT 22/16 A2993 RMK A01 T02240155  RH  065%=      5-min Rain = 0
KLO1 150103Z 18008KT 22/16 A2993 RMK A01 T02240155  RH  065%=      5-min Rain = 0
KLO1 150104Z 17009KT 22/16 A2993 RMK A01 T02240155  RH  065%=      5-min Rain = 0
KLO1 150105Z 18009KT 22/16 A2993 RMK A01 T02240156  RH  065%=      5-min Rain = 0
KLO1 150106Z 18007KT 23/16 A2993 RMK A01 T02250156  RH  065%=      5-min Rain = 0
KLO1 150107Z 18008KT 23/16 A2994 RMK A01 T02250156  RH  065%=      5-min Rain = 0
KLO1 150108Z 18008KT 23/16 A2994 RMK A01 T02250156  RH  065%=      5-min Rain = 0
KLO1 150109Z 18007KT 23/16 A2994 RMK A01 T02250156  RH  065%=      5-min Rain = 0
KLO1 150110Z 18008KT 23/16 A2994 RMK A01 T02250156  RH  065%=      5-min Rain = 0
KLO1 150111Z 18008KT 23/16 A2994 RMK A01 T02250157  RH  065%=      5-min Rain = 0
KLO1 150112Z 18008KT 23/16 A2994 RMK A01 T02250157  RH  065%=      5-min Rain = 0
KLO1 150113Z 18007KT 23/16 A2994 RMK A01 T02260157  RH  065%=      5-min Rain = 0
KLO1 150114Z 18007KT 23/16 A2994 RMK A01 T02250157  RH  065%=      5-min Rain = 0
KLO1 150115Z 18008KT 23/16 A2994 RMK A01 T02250157  RH  065%=      5-min Rain = 0
KLO1 150116Z 18007KT 23/16 A2994 RMK A01 T02250157  RH  065%=      5-min Rain = 0
KLO1 150117Z 18007KT 23/16 A2994 RMK A01 T02250157  RH  065%=      5-min Rain = 0
KLO1 150118Z 18007KT 23/16 A2994 RMK A01 T02250156  RH  065%=      5-min Rain = 0
KLO1 150119Z 18006KT 23/16 A2994 RMK A01 T02250157  RH  065%=      5-min Rain = 0
KLO1 150120Z 18008KT 22/16 A2994 RMK A01 T02240156  RH  065%=      5-min Rain = 0
KLO1 150121Z 18007KT 23/16 A2994 RMK A01 T02250157  RH  065%=      5-min Rain = 0
KLO1 150122Z 18007KT 22/16 A2994 RMK A01 T02240156  RH  065%=      5-min Rain = 0
KLO1 150123Z 17007KT 22/16 A2994 RMK A01 T02240156  RH  065%=      5-min Rain = 0
KLO1 150124Z 18007KT 22/16 A2994 RMK A01 T02240156  RH  066%=      5-min Rain = 0
KLO1 150125Z 17006KT 22/16 A2994 RMK A01 T02230156  RH  066%=      5-min Rain = 0
KLO1 150126Z 17006KT 22/16 A2994 RMK A01 T02230156  RH  066%=      5-min Rain = 0
KLO1 150127Z 18005KT 22/16 A2994 RMK A01 T02220156  RH  066%=      5-min Rain = 0
KLO1 150128Z 18005KT 22/16 A2994 RMK A01 T02220156  RH  066%=      5-min Rain = 0
KLO1 150129Z 18005KT 22/16 A2994 RMK A01 T02220155  RH  066%=      5-min Rain = 0
KLO1 150130Z 18005KT 22/16 A2995 RMK A01 T02210155  RH  066%=      5-min Rain = 0
KLO1 150131Z 18006KT 22/16 A2995 RMK A01 T02200155  RH  066%=      5-min Rain = 0
KLO1 150132Z 18006KT 22/16 A2995 RMK A01 T02200155  RH  066%=      5-min Rain = 0
KLO1 150133Z 18006KT 22/16 A2995 RMK A01 T02190155  RH  067%=      5-min Rain = 0
KLO1 150134Z 18005KT 22/16 A2995 RMK A01 T02190155  RH  067%=      5-min Rain = 0
KLO1 150135Z 18005KT 22/15 A2995 RMK A01 T02190154  RH  067%=      5-min Rain = 0
KLO1 150136Z 18006KT 22/15 A2995 RMK A01 T02180154  RH  067%=      5-min Rain = 0
KLO1 150137Z 18006KT 22/15 A2995 RMK A01 T02180154  RH  067%=      5-min Rain = 0
KLO1 150138Z 18006KT 22/15 A2995 RMK A01 T02170154  RH  067%=      5-min Rain = 0
KLO1 150139Z 18006KT 22/15 A2995 RMK A01 T02170154  RH  067%=      5-min Rain = 0
KLO1 150140Z 18006KT 22/15 A2995 RMK A01 T02170154  RH  067%=      5-min Rain = 0
KLO1 150141Z 18006KT 22/15 A2995 RMK A01 T02170154  RH  067%=      5-min Rain = 0
KLO1 150142Z 18006KT 22/15 A2995 RMK A01 T02160154  RH  067%=      5-min Rain = 0
KLO1 150143Z 18006KT 22/15 A2995 RMK A01 T02160154  RH  068%=      5-min Rain = 0
KLO1 150144Z 18005KT 22/15 A2995 RMK A01 T02160153  RH  068%=      5-min Rain = 0
KLO1 150145Z 18006KT 22/15 A2995 RMK A01 T02160153  RH  068%=      5-min Rain = 0
KLO1 150146Z 18006KT 22/15 A2995 RMK A01 T02150153  RH  068%=      5-min Rain = 0
KLO1 150147Z 18006KT 22/15 A2995 RMK A01 T02150153  RH  068%=      5-min Rain = 0
KLO1 150148Z 18006KT 22/15 A2995 RMK A01 T02150153  RH  068%=      5-min Rain = 0
KLO1 150149Z 18006KT 22/15 A2995 RMK A01 T02150153  RH  068%=      5-min Rain = 0
KLO1 150150Z 18005KT 22/15 A2995 RMK A01 T02150153  RH  068%=      5-min Rain = 0
KLO1 150151Z 18006KT 22/15 A2995 RMK A01 T02150153  RH  068%=      5-min Rain = 0
KLO1 150152Z 18006KT 21/15 A2995 RMK A01 T02140153  RH  068%=      5-min Rain = 0
KLO1 150153Z 17006KT 22/15 A2995 RMK A01 T02150153  RH  068%=      5-min Rain = 0
KLO1 150154Z 17006KT 21/15 A2995 RMK A01 T02140153  RH  068%=      5-min Rain = 0
KLO1 150155Z 17006KT 22/15 A2995 RMK A01 T02150153  RH  068%=      5-min Rain = 0
KLO1 150156Z 17006KT 21/15 A2995 RMK A01 T02140153  RH  068%=      5-min Rain = 0
KLO1 150157Z 17005KT 21/15 A2995 RMK A01 T02140153  RH  068%=      5-min Rain = 0
KLO1 150158Z 17005KT 21/15 A2995 RMK A01 T02140153  RH  068%=      5-min Rain = 0
KLO1 150159Z 17005KT 21/15 A2995 RMK A01 T02130153  RH  068%=      5-min Rain = 0
KLO1 150200Z 17005KT 21/15 A2995 RMK A01 T02130153  RH  068%=      5-min Rain = 0
KLO1 150201Z 17005KT 21/15 A2995 RMK A01 T02140153  RH  068%=      5-min Rain = 0
KLO1 150202Z 17005KT 21/15 A2995 RMK A01 T02130153  RH  068%=      5-min Rain = 0
KLO1 150203Z 17005KT 21/15 A2995 RMK A01 T02130153  RH  069%=      5-min Rain = 0
KLO1 150204Z 17005KT 21/15 A2995 RMK A01 T02130153  RH  069%=      5-min Rain = 0
KLO1 150205Z 17004KT 21/15 A2995 RMK A01 T02120153  RH  069%=      5-min Rain = 0
KLO1 150206Z 17005KT 21/15 A2995 RMK A01 T02130153  RH  069%=      5-min Rain = 0
KLO1 150207Z 17005KT 21/15 A2995 RMK A01 T02120153  RH  069%=      5-min Rain = 0
KLO1 150208Z 17005KT 21/15 A2995 RMK A01 T02120153  RH  069%=      5-min Rain = 0
KLO1 150209Z 17005KT 21/15 A2995 RMK A01 T02120153  RH  069%=      5-min Rain = 0
KLO1 150210Z 17005KT 21/15 A2995 RMK A01 T02120153  RH  069%=      5-min Rain = 0
KLO1 150211Z 17006KT 21/15 A2995 RMK A01 T02110153  RH  069%=      5-min Rain = 0
KLO1 150212Z 16005KT 21/15 A2995 RMK A01 T02110153  RH  070%=      5-min Rain = 0
KLO1 150213Z 17006KT 21/15 A2995 RMK A01 T02110154  RH  070%=      5-min Rain = 0
KLO1 150214Z 17006KT 21/15 A2995 RMK A01 T02100154  RH  070%=      5-min Rain = 0
KLO1 150215Z 16005KT 21/15 A2995 RMK A01 T02100154  RH  070%=      5-min Rain = 0
KLO1 150216Z 16005KT 21/15 A2995 RMK A01 T02100154  RH  070%=      5-min Rain = 0
KLO1 150217Z 16006KT 21/15 A2995 RMK A01 T02100154  RH  070%=      5-min Rain = 0
KLO1 150218Z 16006KT 21/15 A2995 RMK A01 T02090154  RH  071%=      5-min Rain = 0
KLO1 150219Z 16006KT 21/16 A2995 RMK A01 T02090155  RH  071%=      5-min Rain = 0
KLO1 150220Z 16005KT 21/16 A2995 RMK A01 T02090155  RH  071%=      5-min Rain = 0
KLO1 150221Z 17005KT 21/15 A2995 RMK A01 T02090154  RH  071%=      5-min Rain = 0
KLO1 150222Z 17005KT 21/15 A2995 RMK A01 T02090154  RH  071%=      5-min Rain = 0
KLO1 150223Z 17005KT 21/15 A2995 RMK A01 T02090154  RH  071%=      5-min Rain = 0
KLO1 150224Z 17005KT 21/15 A2995 RMK A01 T02080154  RH  071%=      5-min Rain = 0
KLO1 150225Z 17005KT 21/15 A2995 RMK A01 T02080154  RH  071%=      5-min Rain = 0
KLO1 150226Z 17005KT 21/15 A2995 RMK A01 T02070154  RH  071%=      5-min Rain = 0
KLO1 150227Z 17005KT 21/15 A2995 RMK A01 T02070154  RH  072%=      5-min Rain = 0
KLO1 150228Z 17005KT 21/15 A2995 RMK A01 T02070154  RH  072%=      5-min Rain = 0
KLO1 150229Z 17004KT 21/15 A2995 RMK A01 T02070154  RH  072%=      5-min Rain = 0
KLO1 150230Z 18004KT 21/15 A2995 RMK A01 T02070154  RH  072%=      5-min Rain = 0
KLO1 150231Z 17004KT 21/15 A2995 RMK A01 T02060153  RH  072%=      5-min Rain = 0
KLO1 150232Z 17004KT 21/15 A2995 RMK A01 T02060153  RH  072%=      5-min Rain = 0
KLO1 150233Z 18004KT 21/15 A2995 RMK A01 T02050153  RH  072%=      5-min Rain = 0
KLO1 150234Z 17003KT 21/15 A2995 RMK A01 T02050153  RH  072%=      5-min Rain = 0
KLO1 150235Z 17004KT 20/15 A2995 RMK A01 T02040152  RH  072%=      5-min Rain = 0
KLO1 150236Z 17004KT 20/15 A2995 RMK A01 T02040153  RH  072%=      5-min Rain = 0
KLO1 150237Z 18004KT 20/15 A2995 RMK A01 T02040153  RH  072%=      5-min Rain = 0
KLO1 150238Z 18004KT 20/15 A2995 RMK A01 T02030152  RH  072%=      5-min Rain = 0
KLO1 150239Z 18004KT 20/15 A2995 RMK A01 T02030152  RH  073%=      5-min Rain = 0
KLO1 150240Z 18004KT 20/15 A2995 RMK A01 T02030152  RH  073%=      5-min Rain = 0
KLO1 150241Z 17005KT 20/15 A2995 RMK A01 T02030153  RH  073%=      5-min Rain = 0
KLO1 150242Z 18003KT 20/15 A2995 RMK A01 T02030153  RH  073%=      5-min Rain = 0
KLO1 150243Z 18003KT 20/15 A2995 RMK A01 T02030152  RH  073%=      5-min Rain = 0
KLO1 150244Z 18003KT 20/15 A2995 RMK A01 T02030152  RH  072%=      5-min Rain = 0
KLO1 150245Z 18003KT 20/15 A2995 RMK A01 T02030152  RH  072%=      5-min Rain = 0
KLO1 150246Z 18003KT 20/15 A2995 RMK A01 T02030152  RH  072%=      5-min Rain = 0
KLO1 150247Z 18004KT 20/15 A2995 RMK A01 T02030152  RH  072%=      5-min Rain = 0
KLO1 150248Z 18004KT 20/15 A2995 RMK A01 T02020151  RH  072%=      5-min Rain = 0
KLO1 150249Z 18005KT 20/15 A2995 RMK A01 T02020151  RH  073%=      5-min Rain = 0
KLO1 150250Z 18004KT 20/15 A2995 RMK A01 T02020152  RH  073%=      5-min Rain = 0
KLO1 150251Z 18004KT 20/15 A2995 RMK A01 T02020152  RH  073%=      5-min Rain = 0
KLO1 150252Z 18005KT 20/15 A2995 RMK A01 T02020151  RH  073%=      5-min Rain = 0
KLO1 150253Z 18005KT 20/15 A2995 RMK A01 T02010151  RH  073%=      5-min Rain = 0
KLO1 150254Z 18004KT 20/15 A2995 RMK A01 T02020151  RH  073%=      5-min Rain = 0
KLO1 150255Z 18004KT 20/15 A2996 RMK A01 T02020151  RH  073%=      5-min Rain = 0
KLO1 150256Z 17005KT 20/15 A2996 RMK A01 T02010151  RH  073%=      5-min Rain = 0
KLO1 150257Z 18004KT 20/15 A2996 RMK A01 T02020151  RH  073%=      5-min Rain = 0
KLO1 150258Z 17004KT 20/15 A2996 RMK A01 T02020151  RH  073%=      5-min Rain = 0
KLO1 150259Z 17004KT 20/15 A2996 RMK A01 T02010151  RH  073%=      5-min Rain = 0
KLO1 150300Z 17004KT 20/15 A2996 RMK A01 T02020151  RH  073%=      5-min Rain = 0
KLO1 150301Z 17005KT 20/15 A2996 RMK A01 T02020151  RH  073%=      5-min Rain = 0
KLO1 150302Z 18004KT 20/15 A2996 RMK A01 T02020152  RH  073%=      5-min Rain = 0
KLO1 150303Z 17005KT 20/15 A2996 RMK A01 T02030152  RH  073%=      5-min Rain = 0
KLO1 150304Z 17005KT 20/15 A2996 RMK A01 T02030152  RH  072%=      5-min Rain = 0
KLO1 150305Z 17005KT 20/15 A2996 RMK A01 T02040152  RH  072%=      5-min Rain = 0
KLO1 150306Z 18005KT 20/15 A2996 RMK A01 T02040152  RH  072%=      5-min Rain = 0
KLO1 150307Z 18005KT 20/15 A2996 RMK A01 T02040152  RH  072%=      5-min Rain = 0
KLO1 150308Z 18005KT 20/15 A2996 RMK A01 T02040152  RH  072%=      5-min Rain = 0
KLO1 150309Z 18004KT 20/15 A2996 RMK A01 T02040151  RH  072%=      5-min Rain = 0
KLO1 150310Z 18004KT 20/15 A2996 RMK A01 T02040151  RH  072%=      5-min Rain = 0
KLO1 150311Z 18005KT 20/15 A2996 RMK A01 T02040152  RH  072%=      5-min Rain = 0
KLO1 150312Z 18005KT 20/15 A2997 RMK A01 T02030152  RH  072%=      5-min Rain = 0
KLO1 150313Z 19005KT 20/15 A2997 RMK A01 T02030151  RH  072%=      5-min Rain = 0
KLO1 150314Z 19004KT 20/15 A2997 RMK A01 T02030151  RH  072%=      5-min Rain = 0
KLO1 150315Z 18005KT 20/15 A2997 RMK A01 T02030151  RH  072%=      5-min Rain = 0
KLO1 150316Z 19005KT 20/15 A2997 RMK A01 T02020151  RH  073%=      5-min Rain = 0
KLO1 150317Z 18005KT 20/15 A2997 RMK A01 T02020151  RH  073%=      5-min Rain = 0
KLO1 150318Z 18005KT 20/15 A2997 RMK A01 T02010151  RH  073%=      5-min Rain = 0
KLO1 150319Z 18005KT 20/15 A2997 RMK A01 T02010151  RH  073%=      5-min Rain = 0
KLO1 150320Z 18005KT 20/15 A2997 RMK A01 T02000151  RH  073%=      5-min Rain = 0
KLO1 150321Z 18005KT 20/15 A2997 RMK A01 T02000151  RH  073%=      5-min Rain = 0
KLO1 150322Z 18005KT 20/15 A2997 RMK A01 T02000151  RH  073%=      5-min Rain = 0
KLO1 150323Z 18006KT 20/15 A2997 RMK A01 T02000151  RH  073%=      5-min Rain = 0
KLO1 150324Z 18006KT 20/15 A2997 RMK A01 T02000151  RH  073%=      5-min Rain = 0
KLO1 150325Z 18006KT 20/15 A2997 RMK A01 T02000151  RH  073%=      5-min Rain = 0
KLO1 150326Z 18007KT 20/15 A2997 RMK A01 T02000151  RH  073%=      5-min Rain = 0
KLO1 150327Z 18007KT 20/15 A2997 RMK A01 T02000151  RH  073%=      5-min Rain = 0
KLO1 150328Z 17006KT 20/15 A2997 RMK A01 T02010152  RH  073%=      5-min Rain = 0
KLO1 150329Z 18006KT 20/15 A2997 RMK A01 T02010152  RH  073%=      5-min Rain = 0
KLO1 150330Z 18007KT 20/15 A2997 RMK A01 T02020152  RH  073%=      5-min Rain = 0
KLO1 150331Z 18006KT 20/15 A2997 RMK A01 T02030153  RH  073%=      5-min Rain = 0
KLO1 150332Z 18007KT 20/15 A2997 RMK A01 T02040153  RH  073%=      5-min Rain = 0
KLO1 150333Z 18006KT 21/15 A2997 RMK A01 T02050153  RH  072%=      5-min Rain = 0
KLO1 150334Z 18006KT 21/15 A2997 RMK A01 T02050153  RH  072%=      5-min Rain = 0
KLO1 150335Z 18006KT 21/15 A2997 RMK A01 T02060153  RH  072%=      5-min Rain = 0
KLO1 150336Z 18007KT 21/15 A2997 RMK A01 T02060153  RH  072%=      5-min Rain = 0
KLO1 150337Z 18006KT 21/15 A2997 RMK A01 T02060153  RH  072%=      5-min Rain = 0
KLO1 150338Z 18006KT 21/15 A2997 RMK A01 T02060153  RH  072%=      5-min Rain = 0
KLO1 150339Z 18007KT 21/15 A2997 RMK A01 T02060153  RH  072%=      5-min Rain = 0
KLO1 150340Z 18006KT 21/15 A2997 RMK A01 T02070153  RH  071%=      5-min Rain = 0
KLO1 150341Z 18007KT 21/15 A2997 RMK A01 T02070153  RH  071%=      5-min Rain = 0
KLO1 150342Z 18007KT 21/15 A2997 RMK A01 T02070153  RH  071%=      5-min Rain = 0
KLO1 150343Z 19006KT 21/15 A2997 RMK A01 T02070153  RH  071%=      5-min Rain = 0
KLO1 150344Z 19007KT 21/15 A2997 RMK A01 T02070153  RH  071%=      5-min Rain = 0
KLO1 150345Z 19007KT 21/15 A2997 RMK A01 T02070153  RH  071%=      5-min Rain = 0
KLO1 150346Z 19007KT 21/15 A2997 RMK A01 T02080153  RH  071%=      5-min Rain = 0
KLO1 150347Z 19007KT 21/15 A2997 RMK A01 T02080153  RH  071%=      5-min Rain = 0
KLO1 150348Z 19007KT 21/15 A2997 RMK A01 T02080153  RH  070%=      5-min Rain = 0
KLO1 150349Z 19007KT 21/15 A2997 RMK A01 T02090153  RH  070%=      5-min Rain = 0
KLO1 150350Z 19008KT 21/15 A2997 RMK A01 T02090152  RH  070%=      5-min Rain = 0
KLO1 150351Z 19007KT 21/15 A2997 RMK A01 T02100152  RH  070%=      5-min Rain = 0
KLO1 150352Z 19007KT 21/15 A2997 RMK A01 T02100152  RH  070%=      5-min Rain = 0
KLO1 150353Z 19006KT 21/15 A2997 RMK A01 T02100152  RH  069%=      5-min Rain = 0
KLO1 150354Z 19007KT 21/15 A2997 RMK A01 T02100152  RH  069%=      5-min Rain = 0
KLO1 150355Z 19007KT 21/15 A2997 RMK A01 T02100151  RH  069%=      5-min Rain = 0
KLO1 150356Z 19007KT 21/15 A2997 RMK A01 T02100151  RH  069%=      5-min Rain = 0
KLO1 150357Z 19007KT 21/15 A2997 RMK A01 T02100151  RH  069%=      5-min Rain = 0
KLO1 150358Z 19007KT 21/15 A2997 RMK A01 T02100151  RH  069%=      5-min Rain = 0
KLO1 150359Z 19007KT 21/15 A2997 RMK A01 T02100151  RH  069%=      5-min Rain = 0
KLO1 150400Z 19007KT 21/15 A2997 RMK A01 T02100150  RH  069%=      5-min Rain = 0
KLO1 150401Z 19007KT 21/15 A2997 RMK A01 T02100150  RH  069%=      5-min Rain = 0
KLO1 150402Z 19007KT 21/15 A2997 RMK A01 T02100150  RH  068%=      5-min Rain = 0
KLO1 150403Z 19008KT 21/15 A2997 RMK A01 T02100150  RH  068%=      5-min Rain = 0
KLO1 150404Z 18007KT 21/15 A2997 RMK A01 T02100150  RH  068%=      5-min Rain = 0
KLO1 150405Z 18008KT 21/15 A2997 RMK A01 T02100149  RH  068%=      5-min Rain = 0
KLO1 150406Z 18008KT 21/15 A2997 RMK A01 T02110149  RH  068%=      5-min Rain = 0
KLO1 150407Z 19009KT 21/15 A2997 RMK A01 T02110149  RH  068%=      5-min Rain = 0
KLO1 150408Z 19008KT 21/15 A2997 RMK A01 T02110149  RH  067%=      5-min Rain = 0
KLO1 150409Z 19008KT 21/15 A2997 RMK A01 T02120148  RH  067%=      5-min Rain = 0
KLO1 150410Z 19007KT 21/15 A2997 RMK A01 T02120148  RH  067%=      5-min Rain = 0
KLO1 150411Z 19008KT 21/15 A2997 RMK A01 T02130148  RH  067%=      5-min Rain = 0
KLO1 150412Z 20007KT 21/15 A2997 RMK A01 T02120148  RH  066%=      5-min Rain = 0
KLO1 150413Z 20007KT 21/15 A2997 RMK A01 T02130148  RH  066%=      5-min Rain = 0
KLO1 150414Z 19006KT 21/15 A2997 RMK A01 T02120147  RH  066%=      5-min Rain = 0
KLO1 150415Z 19007KT 21/15 A2997 RMK A01 T02120147  RH  066%=      5-min Rain = 0
KLO1 150416Z 20007KT 21/15 A2997 RMK A01 T02130147  RH  066%=      5-min Rain = 0
KLO1 150417Z 19008KT 21/15 A2997 RMK A01 T02120146  RH  066%=      5-min Rain = 0
KLO1 150418Z 19008KT 21/15 A2997 RMK A01 T02130146  RH  065%=      5-min Rain = 0
KLO1 150419Z 19007KT 21/15 A2997 RMK A01 T02140146  RH  065%=      5-min Rain = 0
KLO1 150420Z 19007KT 22/15 A2997 RMK A01 T02150146  RH  064%=      5-min Rain = 0
KLO1 150421Z 19009KT 22/15 A2997 RMK A01 T02160145  RH  064%=      5-min Rain = 0
KLO1 150422Z 19009KT 22/15 A2997 RMK A01 T02170145  RH  064%=      5-min Rain = 0
KLO1 150423Z 19008KT 22/15 A2997 RMK A01 T02170145  RH  063%=      5-min Rain = 0
KLO1 150424Z 19009KT 22/14 A2997 RMK A01 T02170144  RH  063%=      5-min Rain = 0
KLO1 150425Z 19009KT 22/14 A2997 RMK A01 T02170144  RH  063%=      5-min Rain = 0
KLO1 150426Z 19008KT 22/14 A2997 RMK A01 T02180144  RH  063%=      5-min Rain = 0
KLO1 150427Z 19008KT 22/14 A2997 RMK A01 T02180144  RH  063%=      5-min Rain = 0
KLO1 150428Z 19008KT 22/14 A2997 RMK A01 T02180143  RH  062%=      5-min Rain = 0
KLO1 150429Z 19008KT 22/14 A2997 RMK A01 T02190143  RH  062%=      5-min Rain = 0
KLO1 150430Z 19009KT 22/14 A2997 RMK A01 T02180143  RH  062%=      5-min Rain = 0
KLO1 150431Z 19010KT 22/14 A2997 RMK A01 T02190143  RH  062%=      5-min Rain = 0
KLO1 150432Z 19007KT 22/14 A2997 RMK A01 T02200143  RH  061%=      5-min Rain = 0
KLO1 150433Z 19008KT 22/14 A2997 RMK A01 T02200142  RH  061%=      5-min Rain = 0
KLO1 150434Z 20008KT 22/14 A2997 RMK A01 T02200142  RH  061%=      5-min Rain = 0
KLO1 150435Z 20008KT 22/14 A2997 RMK A01 T02200142  RH  061%=      5-min Rain = 0
KLO1 150436Z 19008KT 22/14 A2997 RMK A01 T02210142  RH  061%=      5-min Rain = 0
KLO1 150437Z 19009KT 22/14 A2997 RMK A01 T02210141  RH  061%=      5-min Rain = 0
KLO1 150438Z 19008KT 22/14 A2997 RMK A01 T02210141  RH  060%=      5-min Rain = 0
KLO1 150439Z 19008KT 22/14 A2997 RMK A01 T02220141  RH  060%=      5-min Rain = 0
KLO1 150440Z 19008KT 22/14 A2997 RMK A01 T02220141  RH  060%=      5-min Rain = 0
KLO1 150441Z 19010KT 22/14 A2997 RMK A01 T02220140  RH  060%=      5-min Rain = 0
KLO1 150442Z 19010KT 22/14 A2997 RMK A01 T02230141  RH  060%=      5-min Rain = 0
KLO1 150443Z 19009KT 22/14 A2997 RMK A01 T02230140  RH  060%=      5-min Rain = 0
KLO1 150444Z 19008KT 22/14 A2997 RMK A01 T02230140  RH  059%=      5-min Rain = 0
KLO1 150445Z 19009KT 22/14 A2997 RMK A01 T02220140  RH  059%=      5-min Rain = 0
KLO1 150446Z 19010KT 22/14 A2997 RMK A01 T02230140  RH  059%=      5-min Rain = 0
KLO1 150447Z 19009KT 22/14 A2997 RMK A01 T02230140  RH  059%=      5-min Rain = 0
KLO1 150448Z 19009KT 22/14 A2997 RMK A01 T02230140  RH  059%=      5-min Rain = 0
KLO1 150449Z 19009KT 22/14 A2997 RMK A01 T02230139  RH  059%=      5-min Rain = 0
KLO1 150450Z 19010KT 22/14 A2997 RMK A01 T02240139  RH  059%=      5-min Rain = 0
KLO1 150451Z 19009KT 22/14 A2997 RMK A01 T02240139  RH  059%=      5-min Rain = 0
KLO1 150452Z 19010KT 22/14 A2997 RMK A01 T02240139  RH  059%=      5-min Rain = 0
KLO1 150453Z 19009KT 22/14 A2997 RMK A01 T02240139  RH  059%=      5-min Rain = 0
KLO1 150454Z 19010KT 22/14 A2997 RMK A01 T02240139  RH  059%=      5-min Rain = 0
KLO1 150455Z 19009KT 22/14 A2997 RMK A01 T02240139  RH  059%=      5-min Rain = 0
KLO1 150456Z 19010KT 22/14 A2997 RMK A01 T02240139  RH  059%=      5-min Rain = 0
KLO1 150457Z 19010KT 22/14 A2997 RMK A01 T02240139  RH  059%=      5-min Rain = 0
KLO1 150458Z 19009KT 22/14 A2997 RMK A01 T02240139  RH  059%=      5-min Rain = 0
KLO1 150459Z 19010KT 22/14 A2997 RMK A01 T02240140  RH  059%=      5-min Rain = 0

Page generated in 0.0867 seconds.